Time,TemperatureF,DewpointF,PressureIn,WindDirection,WindDirectionDegrees,WindSpeedMPH,WindSpeedGustMPH,Humidity,HourlyPrecipIn,Conditions,Clouds,dailyrainin,SolarRadiationWatts/m^2,SoftwareType,DateUTC
2013-02-09 00:00:00,48.6,46.1,30.19,NNE,22,0.0,0.0,91,0.00,,---,0.00,0.00,VWS V14.01,2013-02-09 06:00:00,
2013-02-09 00:01:00,48.6,46.1,30.19,NNE,22,0.0,0.0,91,0.00,,---,0.00,0.00,VWS V14.01,2013-02-09 06:01:00,
2013-02-09 00:03:00,48.5,46.0,30.19,NNE,22,0.0,0.0,91,0.00,,---,0.00,0.00,VWS V14.01,2013-02-09 06:03:00,
2013-02-09 00:05:00,48.3,45.8,30.19,NNE,22,0.0,0.0,91,0.00,,---,0.00,0.00,VWS V14.01,2013-02-09 06:05:00,
2013-02-09 00:06:00,48.3,45.8,30.19,NNE,22,0.0,0.0,91,0.00,,---,0.00,0.00,VWS V14.01,2013-02-09 06:06:00,
2013-02-09 00:08:00,48.2,45.7,30.19,NNE,22,0.0,0.0,91,0.00,,---,0.00,0.00,VWS V14.01,2013-02-09 06:08:00,
2013-02-09 00:10:00,48.2,45.7,30.19,NNE,22,0.0,0.0,91,0.00,,---,0.00,0.00,VWS V14.01,2013-02-09 06:10:00,
2013-02-09 00:11:00,48.1,45.6,30.19,NNE,22,0.0,0.0,91,0.00,,---,0.00,0.00,VWS V14.01,2013-02-09 06:11:00,
2013-02-09 00:15:00,47.9,45.4,30.19,NNE,22,0.0,0.0,91,0.00,,---,0.00,0.00,VWS V14.01,2013-02-09 06:15:00,
2013-02-09 00:17:00,47.8,45.3,30.19,NNE,22,0.0,0.0,91,0.00,,---,0.00,0.00,VWS V14.01,2013-02-09 06:17:00,
2013-02-09 00:20:00,47.6,45.1,30.20,NNE,22,0.0,0.0,91,0.00,,---,0.00,0.00,VWS V14.01,2013-02-09 06:20:00,
2013-02-09 00:23:00,47.4,44.9,30.20,NNE,22,0.0,0.0,91,0.00,,---,0.00,0.00,VWS V14.01,2013-02-09 06:23:00,
2013-02-09 00:25:00,47.2,44.7,30.20,NNE,22,0.0,0.0,91,0.00,,---,0.00,0.00,VWS V14.01,2013-02-09 06:25:00,
2013-02-09 00:26:00,47.2,44.7,30.20,NNE,22,0.0,0.0,91,0.00,,---,0.00,0.00,VWS V14.01,2013-02-09 06:26:00,
2013-02-09 00:28:00,47.1,44.6,30.20,NNE,22,0.0,0.0,91,0.00,,---,0.00,0.00,VWS V14.01,2013-02-09 06:28:00,
2013-02-09 00:30:00,47.0,44.5,30.20,NNE,22,0.0,0.0,91,0.00,,---,0.00,0.00,VWS V14.01,2013-02-09 06:30:00,
2013-02-09 00:32:00,46.9,44.4,30.20,NNE,22,0.0,0.0,91,0.00,,---,0.00,0.00,VWS V14.01,2013-02-09 06:32:00,
2013-02-09 00:33:00,46.9,44.4,30.20,NNE,22,0.0,0.0,91,0.00,,---,0.00,0.00,VWS V14.01,2013-02-09 06:33:00,
2013-02-09 00:34:00,46.9,44.4,30.19,NNE,22,0.0,0.0,91,0.00,,---,0.00,0.00,VWS V14.01,2013-02-09 06:34:00,
2013-02-09 00:38:00,46.6,44.1,30.20,NNE,22,0.0,0.0,91,0.00,,---,0.00,0.00,VWS V14.01,2013-02-09 06:38:00,
2013-02-09 00:39:00,46.6,44.1,30.19,NNE,22,0.0,0.0,91,0.00,,---,0.00,0.00,VWS V14.01,2013-02-09 06:39:00,
2013-02-09 00:41:00,46.5,44.0,30.19,NNE,22,0.0,0.0,91,0.00,,---,0.00,0.00,VWS V14.01,2013-02-09 06:41:00,
2013-02-09 00:43:00,46.4,43.9,30.19,NNE,22,0.0,0.0,91,0.00,,---,0.00,0.00,VWS V14.01,2013-02-09 06:43:00,
2013-02-09 00:44:00,46.4,43.9,30.19,NNE,22,0.0,0.0,91,0.00,,---,0.00,0.00,VWS V14.01,2013-02-09 06:44:00,
2013-02-09 00:45:00,46.4,43.9,30.19,NNE,22,0.0,0.0,91,0.00,,---,0.00,0.00,VWS V14.01,2013-02-09 06:45:00,
2013-02-09 00:48:00,46.2,43.7,30.19,NNE,22,0.0,0.0,91,0.00,,---,0.00,0.00,VWS V14.01,2013-02-09 06:48:00,
2013-02-09 00:49:00,46.2,43.7,30.19,NNE,22,0.0,0.0,91,0.00,,---,0.00,0.00,VWS V14.01,2013-02-09 06:49:00,
2013-02-09 00:51:00,46.1,43.6,30.19,NNE,22,0.0,0.0,91,0.00,,---,0.00,0.00,VWS V14.01,2013-02-09 06:51:00,
2013-02-09 00:54:00,46.0,43.5,30.19,NNE,22,0.0,0.0,91,0.00,,---,0.00,0.00,VWS V14.01,2013-02-09 06:54:00,
2013-02-09 00:56:00,45.9,43.4,30.19,NNE,22,0.0,0.0,91,0.00,,---,0.00,0.00,VWS V14.01,2013-02-09 06:56:00,
2013-02-09 00:59:00,45.7,43.2,30.19,NNE,22,0.0,0.0,91,0.00,,---,0.00,0.00,VWS V14.01,2013-02-09 06:59:00,
2013-02-09 01:00:00,45.7,43.2,30.19,NNE,22,0.0,0.0,91,0.00,,---,0.00,0.00,VWS V14.01,2013-02-09 07:00:00,
2013-02-09 01:02:00,45.6,43.1,30.19,NNE,22,0.0,0.0,91,0.00,,---,0.00,0.00,VWS V14.01,2013-02-09 07:02:00,
2013-02-09 01:04:00,45.5,43.0,30.19,NNE,22,0.0,0.0,91,0.00,,---,0.00,0.00,VWS V14.01,2013-02-09 07:04:00,
2013-02-09 01:05:00,45.5,43.0,30.19,NNE,22,0.0,0.0,91,0.00,,---,0.00,0.00,VWS V14.01,2013-02-09 07:05:00,
2013-02-09 01:08:00,45.4,42.9,30.19,NNE,22,0.0,0.0,91,0.00,,---,0.00,0.00,VWS V14.01,2013-02-09 07:08:00,
2013-02-09 01:10:00,45.4,42.9,30.19,NNE,22,0.0,0.0,91,0.00,,---,0.00,0.00,VWS V14.01,2013-02-09 07:10:00,
2013-02-09 01:11:00,45.3,42.8,30.19,NNE,22,0.0,0.0,91,0.00,,---,0.00,0.00,VWS V14.01,2013-02-09 07:11:00,
2013-02-09 01:15:00,45.2,42.7,30.19,NNE,22,0.0,0.0,91,0.00,,---,0.00,0.00,VWS V14.01,2013-02-09 07:15:00,
2013-02-09 01:16:00,45.1,42.6,30.19,NNE,22,0.0,0.0,91,0.00,,---,0.00,0.00,VWS V14.01,2013-02-09 07:16:00,
2013-02-09 01:17:00,45.1,42.6,30.19,NNE,22,0.0,0.0,91,0.00,,---,0.00,0.00,VWS V14.01,2013-02-09 07:17:00,
2013-02-09 01:20:00,45.0,42.5,30.19,NNE,22,0.0,0.0,91,0.00,,---,0.00,0.00,VWS V14.01,2013-02-09 07:20:00,
2013-02-09 01:21:00,44.9,42.4,30.19,NNE,22,0.0,0.0,91,0.00,,---,0.00,0.00,VWS V14.01,2013-02-09 07:21:00,
2013-02-09 01:23:00,44.9,42.4,30.19,NNE,22,0.0,0.0,91,0.00,,---,0.00,0.00,VWS V14.01,2013-02-09 07:23:00,
2013-02-09 01:24:00,44.8,42.3,30.19,NNE,22,0.0,0.0,91,0.00,,---,0.00,0.00,VWS V14.01,2013-02-09 07:24:00,
2013-02-09 01:26:00,44.7,42.2,30.19,NNE,22,0.0,0.0,91,0.00,,---,0.00,0.00,VWS V14.01,2013-02-09 07:26:00,
2013-02-09 01:28:00,44.6,42.1,30.20,NNE,22,0.0,0.0,91,0.00,,---,0.00,0.00,VWS V14.01,2013-02-09 07:28:00,
2013-02-09 01:30:00,44.6,42.1,30.20,NNE,22,0.0,0.0,91,0.00,,---,0.00,0.00,VWS V14.01,2013-02-09 07:30:00,
2013-02-09 01:31:00,44.5,42.0,30.20,NNE,22,0.0,0.0,91,0.00,,---,0.00,0.00,VWS V14.01,2013-02-09 07:31:00,
2013-02-09 01:33:00,44.5,42.3,30.19,NNE,22,0.0,0.0,92,0.00,,---,0.00,0.00,VWS V14.01,2013-02-09 07:33:00,
2013-02-09 01:36:00,44.4,42.2,30.20,NNE,22,0.0,0.0,92,0.00,,---,0.00,0.00,VWS V14.01,2013-02-09 07:36:00,
2013-02-09 01:37:00,44.3,42.1,30.20,NNE,22,0.0,0.0,92,0.00,,---,0.00,0.00,VWS V14.01,2013-02-09 07:37:00,
2013-02-09 01:38:00,44.3,42.1,30.20,NNE,22,0.0,0.0,92,0.00,,---,0.00,0.00,VWS V14.01,2013-02-09 07:38:00,
2013-02-09 01:40:00,44.3,42.1,30.20,NNE,32,0.0,2.0,92,0.00,,---,0.00,0.00,VWS V14.01,2013-02-09 07:40:00,
2013-02-09 01:41:00,44.2,42.0,30.20,NNE,32,0.0,2.0,92,0.00,,---,0.00,0.00,VWS V14.01,2013-02-09 07:41:00,
2013-02-09 01:43:00,44.2,42.0,30.20,NNE,32,0.0,2.0,92,0.00,,---,0.00,0.00,VWS V14.01,2013-02-09 07:43:00,
2013-02-09 01:45:00,44.2,42.0,30.20,NNE,32,0.0,2.0,92,0.00,,---,0.00,0.00,VWS V14.01,2013-02-09 07:45:00,
2013-02-09 01:46:00,44.2,42.0,30.20,NNE,32,0.0,2.0,92,0.00,,---,0.00,0.00,VWS V14.01,2013-02-09 07:46:00,
2013-02-09 01:48:00,44.2,42.0,30.20,NNE,32,0.0,2.0,92,0.00,,---,0.00,0.00,VWS V14.01,2013-02-09 07:48:00,
2013-02-09 01:49:00,44.1,41.9,30.20,NNE,32,0.0,2.0,92,0.00,,---,0.00,0.00,VWS V14.01,2013-02-09 07:49:00,
2013-02-09 01:53:00,44.2,42.0,30.20,NNE,32,0.0,2.0,92,0.00,,---,0.00,0.00,VWS V14.01,2013-02-09 07:53:00,
2013-02-09 01:54:00,44.2,42.0,30.20,NNE,32,0.0,2.0,92,0.00,,---,0.00,0.00,VWS V14.01,2013-02-09 07:54:00,
2013-02-09 01:55:00,44.2,42.3,30.20,NNE,32,0.0,2.0,93,0.00,,---,0.00,0.00,VWS V14.01,2013-02-09 07:55:00,
2013-02-09 01:58:00,44.3,42.4,30.20,NNE,32,0.0,2.0,93,0.00,,---,0.00,0.00,VWS V14.01,2013-02-09 07:58:00,
2013-02-09 01:59:00,44.3,42.4,30.19,NNE,32,0.0,2.0,93,0.00,,---,0.00,0.00,VWS V14.01,2013-02-09 07:59:00,
2013-02-09 02:00:00,44.3,42.4,30.19,NNE,32,0.0,0.0,93,0.00,,---,0.00,0.00,VWS V14.01,2013-02-09 08:00:00,
2013-02-09 02:01:00,44.3,42.4,30.19,NNE,32,0.0,0.0,93,0.00,,---,0.00,0.00,VWS V14.01,2013-02-09 08:01:00,
2013-02-09 02:03:00,44.3,42.4,30.19,NNE,32,0.0,0.0,93,0.00,,---,0.00,0.00,VWS V14.01,2013-02-09 08:03:00,
2013-02-09 02:05:00,44.3,42.4,30.19,NNE,32,0.0,0.0,93,0.00,,---,0.00,0.00,VWS V14.01,2013-02-09 08:05:00,
2013-02-09 02:08:00,44.3,42.4,30.20,NNE,32,0.0,0.0,93,0.00,,---,0.00,0.00,VWS V14.01,2013-02-09 08:08:00,
2013-02-09 02:09:00,44.3,42.4,30.20,NNE,32,0.0,0.0,93,0.00,,---,0.00,0.00,VWS V14.01,2013-02-09 08:09:00,
2013-02-09 02:11:00,44.3,42.4,30.19,NNE,32,0.0,0.0,93,0.00,,---,0.00,0.00,VWS V14.01,2013-02-09 08:11:00,
2013-02-09 02:13:00,44.4,42.5,30.19,NNE,32,0.0,0.0,93,0.00,,---,0.00,0.00,VWS V14.01,2013-02-09 08:13:00,
2013-02-09 02:14:00,44.4,42.5,30.19,NNE,32,0.0,0.0,93,0.00,,---,0.00,0.00,VWS V14.01,2013-02-09 08:14:00,
2013-02-09 02:16:00,44.4,42.5,30.19,NNE,32,0.0,0.0,93,0.00,,---,0.00,0.00,VWS V14.01,2013-02-09 08:16:00,
2013-02-09 02:17:00,44.4,42.5,30.19,NNE,32,0.0,0.0,93,0.00,,---,0.00,0.00,VWS V14.01,2013-02-09 08:17:00,
2013-02-09 02:18:00,44.4,42.5,30.19,NNE,32,0.0,0.0,93,0.00,,---,0.00,0.00,VWS V14.01,2013-02-09 08:18:00,
2013-02-09 02:20:00,44.4,42.5,30.19,NNE,32,0.0,0.0,93,0.00,,---,0.00,0.00,VWS V14.01,2013-02-09 08:20:00,
2013-02-09 02:22:00,44.4,42.5,30.19,NNE,32,0.0,0.0,93,0.00,,---,0.00,0.00,VWS V14.01,2013-02-09 08:22:00,
2013-02-09 02:24:00,44.4,42.5,30.19,NNE,32,0.0,1.0,93,0.00,,---,0.00,0.00,VWS V14.01,2013-02-09 08:24:00,
2013-02-09 02:25:00,44.4,42.5,30.19,NNE,32,0.0,1.0,93,0.00,,---,0.00,0.00,VWS V14.01,2013-02-09 08:25:00,
2013-02-09 02:29:00,44.5,42.9,30.18,ENE,58,0.0,1.0,94,0.00,,---,0.00,0.00,VWS V14.01,2013-02-09 08:29:00,
2013-02-09 02:30:00,44.5,42.9,30.18,ENE,58,0.0,0.0,94,0.00,,---,0.00,0.00,VWS V14.01,2013-02-09 08:30:00,
2013-02-09 02:31:00,44.5,42.9,30.18,ENE,58,0.0,0.0,94,0.00,,---,0.00,0.00,VWS V14.01,2013-02-09 08:31:00,
2013-02-09 02:35:00,44.5,42.9,30.18,ENE,58,0.0,0.0,94,0.00,,---,0.00,0.00,VWS V14.01,2013-02-09 08:35:00,
2013-02-09 02:36:00,44.5,42.6,30.18,ENE,58,0.0,0.0,93,0.00,,---,0.00,0.00,VWS V14.01,2013-02-09 08:36:00,
2013-02-09 02:40:00,44.4,42.5,30.18,ENE,58,0.0,0.0,93,0.00,,---,0.00,0.00,VWS V14.01,2013-02-09 08:40:00,
2013-02-09 02:41:00,44.4,42.5,30.18,ENE,58,0.0,0.0,93,0.00,,---,0.00,0.00,VWS V14.01,2013-02-09 08:41:00,
2013-02-09 02:42:00,44.4,42.5,30.18,ENE,58,0.0,0.0,93,0.00,,---,0.00,0.00,VWS V14.01,2013-02-09 08:42:00,
2013-02-09 02:46:00,44.3,42.4,30.18,ENE,58,0.0,0.0,93,0.00,,---,0.00,0.00,VWS V14.01,2013-02-09 08:46:00,
2013-02-09 02:47:00,44.3,42.4,30.18,ENE,58,0.0,0.0,93,0.00,,---,0.00,0.00,VWS V14.01,2013-02-09 08:47:00,
2013-02-09 02:48:00,44.3,42.4,30.18,ENE,58,0.0,0.0,93,0.00,,---,0.00,0.00,VWS V14.01,2013-02-09 08:48:00,
2013-02-09 02:52:00,44.3,42.7,30.18,ENE,58,0.0,0.0,94,0.00,,---,0.00,0.00,VWS V14.01,2013-02-09 08:52:00,
2013-02-09 02:53:00,44.3,42.7,30.18,ENE,58,0.0,0.0,94,0.00,,---,0.00,0.00,VWS V14.01,2013-02-09 08:53:00,
2013-02-09 02:55:00,44.2,42.6,30.18,ENE,58,0.0,0.0,94,0.00,,---,0.00,0.00,VWS V14.01,2013-02-09 08:55:00,
2013-02-09 02:57:00,44.3,42.7,30.18,ENE,58,0.0,0.0,94,0.00,,---,0.00,0.00,VWS V14.01,2013-02-09 08:57:00,
2013-02-09 02:58:00,44.3,42.7,30.18,ENE,58,0.0,0.0,94,0.00,,---,0.00,0.00,VWS V14.01,2013-02-09 08:58:00,
2013-02-09 02:59:00,44.3,42.7,30.18,ENE,58,0.0,0.0,94,0.00,,---,0.00,0.00,VWS V14.01,2013-02-09 08:59:00,
2013-02-09 03:00:00,44.3,42.7,30.18,ENE,58,0.0,0.0,94,0.00,,---,0.00,0.00,VWS V14.01,2013-02-09 09:00:00,
2013-02-09 03:03:00,44.3,42.7,30.18,ENE,58,0.0,0.0,94,0.00,,---,0.00,0.00,VWS V14.01,2013-02-09 09:03:00,
2013-02-09 03:04:00,44.3,42.7,30.18,ENE,58,0.0,0.0,94,0.00,,---,0.00,0.00,VWS V14.01,2013-02-09 09:04:00,
2013-02-09 03:05:00,44.2,42.6,30.18,ENE,58,0.0,0.0,94,0.00,,---,0.00,0.00,VWS V14.01,2013-02-09 09:05:00,
2013-02-09 03:08:00,44.2,42.6,30.18,ENE,58,0.0,0.0,94,0.00,,---,0.00,0.00,VWS V14.01,2013-02-09 09:08:00,
2013-02-09 03:09:00,44.2,42.6,30.18,ENE,58,0.0,0.0,94,0.00,,---,0.00,0.00,VWS V14.01,2013-02-09 09:09:00,
2013-02-09 03:11:00,44.2,42.6,30.18,ENE,58,0.0,0.0,94,0.00,,---,0.00,0.00,VWS V14.01,2013-02-09 09:11:00,
2013-02-09 03:13:00,44.2,42.6,30.18,ENE,58,0.0,0.0,94,0.00,,---,0.00,0.00,VWS V14.01,2013-02-09 09:13:00,
2013-02-09 03:14:00,44.2,42.6,30.18,ENE,58,0.0,0.0,94,0.00,,---,0.00,0.00,VWS V14.01,2013-02-09 09:14:00,
2013-02-09 03:16:00,44.1,42.5,30.18,ENE,58,0.0,0.0,94,0.00,,---,0.00,0.00,VWS V14.01,2013-02-09 09:16:00,
2013-02-09 03:19:00,44.1,42.5,30.17,ENE,58,0.0,1.0,94,0.00,,---,0.00,0.00,VWS V14.01,2013-02-09 09:19:00,
2013-02-09 03:20:00,44.1,42.5,30.17,ENE,58,1.0,1.0,94,0.00,,---,0.00,0.00,VWS V14.01,2013-02-09 09:20:00,
2013-02-09 03:22:00,44.1,42.5,30.17,ENE,58,0.0,1.0,94,0.00,,---,0.00,0.00,VWS V14.01,2013-02-09 09:22:00,
2013-02-09 03:24:00,44.0,42.4,30.17,ENE,58,0.0,1.0,94,0.00,,---,0.00,0.00,VWS V14.01,2013-02-09 09:24:00,
2013-02-09 03:25:00,44.0,42.4,30.17,ENE,58,0.0,1.0,94,0.00,,---,0.00,0.00,VWS V14.01,2013-02-09 09:25:00,
2013-02-09 03:27:00,44.0,42.4,30.17,ENE,58,0.0,1.0,94,0.00,,---,0.00,0.00,VWS V14.01,2013-02-09 09:27:00,
2013-02-09 03:30:00,44.0,42.4,30.17,ENE,58,0.0,0.0,94,0.00,,---,0.00,0.00,VWS V14.01,2013-02-09 09:30:00,
2013-02-09 03:32:00,43.9,42.3,30.17,ENE,58,0.0,0.0,94,0.00,,---,0.00,0.00,VWS V14.01,2013-02-09 09:32:00,
2013-02-09 03:33:00,43.9,42.3,30.17,ENE,58,0.0,0.0,94,0.00,,---,0.00,0.00,VWS V14.01,2013-02-09 09:33:00,
2013-02-09 03:36:00,43.9,42.3,30.17,ENE,58,0.0,0.0,94,0.00,,---,0.00,0.00,VWS V14.01,2013-02-09 09:36:00,
2013-02-09 03:37:00,43.9,42.3,30.17,ENE,58,0.0,0.0,94,0.00,,---,0.00,0.00,VWS V14.01,2013-02-09 09:37:00,
2013-02-09 03:40:00,43.8,42.2,30.17,ENE,58,0.0,0.0,94,0.00,,---,0.00,0.00,VWS V14.01,2013-02-09 09:40:00,
2013-02-09 03:41:00,43.8,42.2,30.17,ENE,58,0.0,0.0,94,0.00,,---,0.00,0.00,VWS V14.01,2013-02-09 09:41:00,
2013-02-09 03:42:00,43.8,42.2,30.17,ENE,58,0.0,0.0,94,0.00,,---,0.00,0.00,VWS V14.01,2013-02-09 09:42:00,
2013-02-09 03:45:00,43.8,42.2,30.17,ENE,58,0.0,0.0,94,0.00,,---,0.00,0.00,VWS V14.01,2013-02-09 09:45:00,
2013-02-09 03:47:00,43.8,42.2,30.17,ENE,58,0.0,0.0,94,0.00,,---,0.00,0.00,VWS V14.01,2013-02-09 09:47:00,
2013-02-09 03:51:00,43.7,42.1,30.17,ENE,58,1.0,1.0,94,0.00,,---,0.00,0.00,VWS V14.01,2013-02-09 09:51:00,
2013-02-09 03:52:00,43.7,42.1,30.17,ENE,58,0.0,1.0,94,0.00,,---,0.00,0.00,VWS V14.01,2013-02-09 09:52:00,
2013-02-09 03:53:00,43.7,42.1,30.17,ENE,58,0.0,1.0,94,0.00,,---,0.00,0.00,VWS V14.01,2013-02-09 09:53:00,
2013-02-09 03:56:00,43.7,42.1,30.17,ENE,58,0.0,1.0,94,0.00,,---,0.00,0.00,VWS V14.01,2013-02-09 09:56:00,
2013-02-09 03:58:00,43.7,42.1,30.17,ESE,115,0.0,3.0,94,0.00,,---,0.00,0.00,VWS V14.01,2013-02-09 09:58:00,
2013-02-09 03:59:00,43.7,42.1,30.17,ENE,77,0.0,3.0,94,0.00,,---,0.00,0.00,VWS V14.01,2013-02-09 09:59:00,
2013-02-09 04:00:00,43.7,42.1,30.17,ENE,77,0.0,3.0,94,0.00,,---,0.00,0.00,VWS V14.01,2013-02-09 10:00:00,
2013-02-09 04:02:00,43.7,42.1,30.17,ENE,77,0.0,0.0,94,0.00,,---,0.00,0.00,VWS V14.01,2013-02-09 10:02:00,
2013-02-09 04:04:00,43.7,42.4,30.17,ENE,77,0.0,0.0,95,0.00,,---,0.00,0.00,VWS V14.01,2013-02-09 10:04:00,
2013-02-09 04:05:00,43.7,42.1,30.17,ENE,77,1.0,1.0,94,0.00,,---,0.00,0.00,VWS V14.01,2013-02-09 10:05:00,
2013-02-09 04:08:00,43.7,42.1,30.17,ENE,77,0.0,2.0,94,0.00,,---,0.00,0.00,VWS V14.01,2013-02-09 10:08:00,
2013-02-09 04:09:00,43.7,42.4,30.17,ENE,77,0.0,2.0,95,0.00,,---,0.00,0.00,VWS V14.01,2013-02-09 10:09:00,
2013-02-09 04:11:00,43.7,42.4,30.17,ENE,73,0.0,3.0,95,0.00,,---,0.00,0.00,VWS V14.01,2013-02-09 10:11:00,
2013-02-09 04:13:00,43.7,42.4,30.17,ENE,73,0.0,3.0,95,0.00,,---,0.00,0.00,VWS V14.01,2013-02-09 10:13:00,
2013-02-09 04:14:00,43.7,42.4,30.17,ENE,73,0.0,3.0,95,0.00,,---,0.00,0.00,VWS V14.01,2013-02-09 10:14:00,
2013-02-09 04:16:00,43.7,42.4,30.17,ENE,73,0.0,3.0,95,0.00,,---,0.00,0.00,VWS V14.01,2013-02-09 10:16:00,
2013-02-09 04:17:00,43.7,42.4,30.17,ENE,73,0.0,3.0,95,0.00,,---,0.00,0.00,VWS V14.01,2013-02-09 10:17:00,
2013-02-09 04:18:00,43.7,42.4,30.17,ENE,73,0.0,3.0,95,0.00,,---,0.00,0.00,VWS V14.01,2013-02-09 10:18:00,
2013-02-09 04:19:00,43.7,42.4,30.17,ENE,73,0.0,3.0,95,0.00,,---,0.00,0.00,VWS V14.01,2013-02-09 10:19:00,
2013-02-09 04:21:00,43.7,42.4,30.17,ENE,73,0.0,3.0,95,0.00,,---,0.00,0.00,VWS V14.01,2013-02-09 10:21:00,
2013-02-09 04:22:00,43.7,42.4,30.17,ENE,73,0.0,3.0,95,0.00,,---,0.00,0.00,VWS V14.01,2013-02-09 10:22:00,
2013-02-09 04:24:00,43.6,42.3,30.17,ENE,73,0.0,3.0,95,0.00,,---,0.00,0.00,VWS V14.01,2013-02-09 10:24:00,
2013-02-09 04:25:00,43.6,42.3,30.16,ENE,73,0.0,3.0,95,0.00,,---,0.00,0.00,VWS V14.01,2013-02-09 10:25:00,
2013-02-09 04:27:00,43.6,42.3,30.16,ENE,73,0.0,3.0,95,0.00,,---,0.00,0.00,VWS V14.01,2013-02-09 10:27:00,
2013-02-09 04:29:00,43.6,42.0,30.17,ENE,73,0.0,3.0,94,0.00,,---,0.00,0.00,VWS V14.01,2013-02-09 10:29:00,
2013-02-09 04:30:00,43.6,42.0,30.17,ENE,73,0.0,0.0,94,0.00,,---,0.00,0.00,VWS V14.01,2013-02-09 10:30:00,
2013-02-09 04:34:00,43.6,42.0,30.17,ENE,73,0.0,0.0,94,0.00,,---,0.00,0.00,VWS V14.01,2013-02-09 10:34:00,
2013-02-09 04:35:00,43.6,42.0,30.16,ENE,73,0.0,0.0,94,0.00,,---,0.00,0.00,VWS V14.01,2013-02-09 10:35:00,
2013-02-09 04:39:00,43.5,41.9,30.16,ENE,73,0.0,0.0,94,0.00,,---,0.00,0.00,VWS V14.01,2013-02-09 10:39:00,
2013-02-09 04:40:00,43.5,41.9,30.16,ENE,73,0.0,0.0,94,0.00,,---,0.00,0.00,VWS V14.01,2013-02-09 10:40:00,
2013-02-09 04:41:00,43.5,41.9,30.16,ENE,73,0.0,0.0,94,0.00,,---,0.00,0.00,VWS V14.01,2013-02-09 10:41:00,
2013-02-09 04:43:00,43.5,42.2,30.16,ENE,73,0.0,0.0,95,0.00,,---,0.00,0.00,VWS V14.01,2013-02-09 10:43:00,
2013-02-09 04:46:00,43.4,42.1,30.16,ENE,73,0.0,0.0,95,0.00,,---,0.00,0.00,VWS V14.01,2013-02-09 10:46:00,
2013-02-09 04:48:00,43.4,42.1,30.16,ENE,73,0.0,0.0,95,0.00,,---,0.00,0.00,VWS V14.01,2013-02-09 10:48:00,
2013-02-09 04:49:00,43.4,42.1,30.16,ENE,73,0.0,1.0,95,0.00,,---,0.00,0.00,VWS V14.01,2013-02-09 10:49:00,
2013-02-09 04:51:00,43.3,42.0,30.16,ENE,73,0.0,1.0,95,0.00,,---,0.00,0.00,VWS V14.01,2013-02-09 10:51:00,
2013-02-09 04:53:00,43.3,42.0,30.17,ENE,73,0.0,1.0,95,0.00,,---,0.00,0.00,VWS V14.01,2013-02-09 10:53:00,
2013-02-09 04:54:00,43.3,42.0,30.17,ENE,73,0.0,1.0,95,0.00,,---,0.00,0.00,VWS V14.01,2013-02-09 10:54:00,
2013-02-09 04:56:00,43.3,42.0,30.17,ENE,73,0.0,1.0,95,0.00,,---,0.00,0.00,VWS V14.01,2013-02-09 10:56:00,
2013-02-09 04:59:00,43.3,42.0,30.17,ENE,73,0.0,1.0,95,0.00,,---,0.00,0.00,VWS V14.01,2013-02-09 10:59:00,
2013-02-09 05:00:00,43.3,42.0,30.17,ENE,73,0.0,1.0,95,0.00,,---,0.00,0.00,VWS V14.01,2013-02-09 11:00:00,
2013-02-09 05:01:00,43.3,42.0,30.17,ENE,73,0.0,0.0,95,0.00,,---,0.00,0.00,VWS V14.01,2013-02-09 11:01:00,
2013-02-09 05:04:00,43.3,42.0,30.17,ENE,73,0.0,0.0,95,0.00,,---,0.00,0.00,VWS V14.01,2013-02-09 11:04:00,
2013-02-09 05:05:00,43.3,42.0,30.17,ENE,73,0.0,0.0,95,0.00,,---,0.00,0.00,VWS V14.01,2013-02-09 11:05:00,
2013-02-09 05:06:00,43.3,42.0,30.17,ENE,73,0.0,0.0,95,0.00,,---,0.00,0.00,VWS V14.01,2013-02-09 11:06:00,
2013-02-09 05:09:00,43.3,42.0,30.17,ENE,73,0.0,0.0,95,0.00,,---,0.00,0.00,VWS V14.01,2013-02-09 11:09:00,
2013-02-09 05:11:00,43.2,41.9,30.17,ENE,73,0.0,0.0,95,0.00,,---,0.00,0.00,VWS V14.01,2013-02-09 11:11:00,
2013-02-09 05:12:00,43.3,42.0,30.17,ENE,73,0.0,0.0,95,0.00,,---,0.00,0.00,VWS V14.01,2013-02-09 11:12:00,
2013-02-09 05:15:00,43.2,41.9,30.17,ENE,73,0.0,0.0,95,0.00,,---,0.00,0.00,VWS V14.01,2013-02-09 11:15:00,
2013-02-09 05:16:00,43.2,41.9,30.17,ENE,73,0.0,1.0,95,0.00,,---,0.00,0.00,VWS V14.01,2013-02-09 11:16:00,
2013-02-09 05:17:00,43.2,41.9,30.17,ENE,73,0.0,1.0,95,0.00,,---,0.00,0.00,VWS V14.01,2013-02-09 11:17:00,
2013-02-09 05:18:00,43.2,41.9,30.17,ENE,73,0.0,1.0,95,0.00,,---,0.00,0.00,VWS V14.01,2013-02-09 11:18:00,
2013-02-09 05:21:00,43.2,41.9,30.17,ENE,73,0.0,1.0,95,0.01,,---,0.01,0.00,VWS V14.01,2013-02-09 11:21:00,
2013-02-09 05:22:00,43.2,41.9,30.17,ENE,73,0.0,1.0,95,0.01,,---,0.01,0.00,VWS V14.01,2013-02-09 11:22:00,
2013-02-09 05:25:00,43.2,41.9,30.17,ENE,73,0.0,1.0,95,0.01,,---,0.01,0.00,VWS V14.01,2013-02-09 11:25:00,
2013-02-09 05:27:00,43.1,41.8,30.17,ENE,73,0.0,1.0,95,0.01,,---,0.01,0.00,VWS V14.01,2013-02-09 11:27:00,
2013-02-09 05:28:00,43.1,41.8,30.17,ENE,73,0.0,1.0,95,0.01,,---,0.01,0.00,VWS V14.01,2013-02-09 11:28:00,
2013-02-09 05:30:00,43.1,41.8,30.17,ENE,73,0.0,1.0,95,0.01,,---,0.01,0.00,VWS V14.01,2013-02-09 11:30:00,
2013-02-09 05:31:00,43.1,41.8,30.17,ENE,73,0.0,0.0,95,0.01,,---,0.01,0.00,VWS V14.01,2013-02-09 11:31:00,
2013-02-09 05:32:00,43.1,41.8,30.17,ENE,73,0.0,0.0,95,0.01,,---,0.01,0.00,VWS V14.01,2013-02-09 11:32:00,
2013-02-09 05:33:00,43.0,41.7,30.17,ENE,73,0.0,0.0,95,0.01,,---,0.01,0.00,VWS V14.01,2013-02-09 11:33:00,
2013-02-09 05:36:00,43.0,41.7,30.17,ENE,73,0.0,0.0,95,0.01,,---,0.01,0.00,VWS V14.01,2013-02-09 11:36:00,
2013-02-09 05:37:00,43.0,41.7,30.17,ENE,73,0.0,0.0,95,0.01,,---,0.01,0.00,VWS V14.01,2013-02-09 11:37:00,
2013-02-09 05:39:00,43.0,41.7,30.17,ENE,73,0.0,0.0,95,0.01,,---,0.01,0.00,VWS V14.01,2013-02-09 11:39:00,
2013-02-09 05:41:00,42.9,41.6,30.17,ENE,73,0.0,0.0,95,0.01,,---,0.01,0.00,VWS V14.01,2013-02-09 11:41:00,
2013-02-09 05:42:00,42.9,41.6,30.17,ENE,73,0.0,0.0,95,0.01,,---,0.01,0.00,VWS V14.01,2013-02-09 11:42:00,
2013-02-09 05:44:00,42.9,41.6,30.17,ENE,73,0.0,0.0,95,0.01,,---,0.01,0.00,VWS V14.01,2013-02-09 11:44:00,
2013-02-09 05:47:00,42.9,41.6,30.18,ENE,73,0.0,0.0,95,0.01,,---,0.01,0.00,VWS V14.01,2013-02-09 11:47:00,
2013-02-09 05:49:00,42.8,41.5,30.18,ENE,73,0.0,0.0,95,0.01,,---,0.01,0.00,VWS V14.01,2013-02-09 11:49:00,
2013-02-09 05:51:00,42.8,41.5,30.18,ENE,73,0.0,0.0,95,0.01,,---,0.01,0.00,VWS V14.01,2013-02-09 11:51:00,
2013-02-09 05:52:00,42.7,41.4,30.18,ENE,73,0.0,0.0,95,0.01,,---,0.01,0.00,VWS V14.01,2013-02-09 11:52:00,
2013-02-09 05:54:00,42.8,41.5,30.18,ENE,73,0.0,0.0,95,0.01,,---,0.01,0.00,VWS V14.01,2013-02-09 11:54:00,
2013-02-09 05:56:00,42.7,41.4,30.18,ENE,73,0.0,0.0,95,0.01,,---,0.01,0.00,VWS V14.01,2013-02-09 11:56:00,
2013-02-09 05:59:00,42.7,41.4,30.18,ENE,73,0.0,0.0,95,0.01,,---,0.01,0.00,VWS V14.01,2013-02-09 11:59:00,
2013-02-09 06:00:00,42.7,41.4,30.18,ENE,73,0.0,0.0,95,0.01,,---,0.01,0.00,VWS V14.01,2013-02-09 12:00:00,
2013-02-09 06:01:00,42.7,41.4,30.19,ENE,73,0.0,0.0,95,0.01,,---,0.01,0.00,VWS V14.01,2013-02-09 12:01:00,
2013-02-09 06:02:00,42.6,41.3,30.19,ENE,73,0.0,0.0,95,0.01,,---,0.01,0.00,VWS V14.01,2013-02-09 12:02:00,
2013-02-09 06:04:00,42.6,41.3,30.19,ENE,73,0.0,0.0,95,0.01,,---,0.01,0.00,VWS V14.01,2013-02-09 12:04:00,
2013-02-09 06:05:00,42.5,41.2,30.19,ENE,73,0.0,0.0,95,0.01,,---,0.01,0.00,VWS V14.01,2013-02-09 12:05:00,
2013-02-09 06:07:00,42.5,41.2,30.19,ENE,73,0.0,0.0,95,0.01,,---,0.01,0.00,VWS V14.01,2013-02-09 12:07:00,
2013-02-09 06:10:00,42.5,41.2,30.19,ENE,73,0.0,0.0,95,0.01,,---,0.01,0.00,VWS V14.01,2013-02-09 12:10:00,
2013-02-09 06:11:00,42.5,41.2,30.19,ENE,73,0.0,0.0,95,0.01,,---,0.01,0.00,VWS V14.01,2013-02-09 12:11:00,
2013-02-09 06:12:00,42.4,41.1,30.19,ENE,73,0.0,0.0,95,0.01,,---,0.01,0.00,VWS V14.01,2013-02-09 12:12:00,
2013-02-09 06:15:00,42.4,41.1,30.19,ENE,73,0.0,0.0,95,0.01,,---,0.01,0.00,VWS V14.01,2013-02-09 12:15:00,
2013-02-09 06:16:00,42.4,41.1,30.19,ENE,73,0.0,0.0,95,0.01,,---,0.01,0.00,VWS V14.01,2013-02-09 12:16:00,
2013-02-09 06:18:00,42.4,41.1,30.19,ENE,73,0.0,0.0,95,0.01,,---,0.01,0.00,VWS V14.01,2013-02-09 12:18:00,
2013-02-09 06:21:00,42.4,41.1,30.19,ENE,73,0.0,0.0,95,0.01,,---,0.01,0.00,VWS V14.01,2013-02-09 12:21:00,
2013-02-09 06:22:00,42.3,41.0,30.19,ENE,73,0.0,0.0,95,0.01,,---,0.01,0.00,VWS V14.01,2013-02-09 12:22:00,
2013-02-09 06:24:00,42.3,41.0,30.19,ENE,73,0.0,0.0,95,0.01,,---,0.01,0.00,VWS V14.01,2013-02-09 12:24:00,
2013-02-09 06:26:00,42.3,41.0,30.19,ENE,73,0.0,0.0,95,0.01,,---,0.01,0.00,VWS V14.01,2013-02-09 12:26:00,
2013-02-09 06:27:00,42.3,41.0,30.19,ENE,73,0.0,0.0,95,0.01,,---,0.01,0.00,VWS V14.01,2013-02-09 12:27:00,
2013-02-09 06:28:00,42.2,40.9,30.19,ENE,73,0.0,0.0,95,0.01,,---,0.01,0.00,VWS V14.01,2013-02-09 12:28:00,
2013-02-09 06:30:00,42.2,40.9,30.20,ENE,73,0.0,0.0,95,0.00,,---,0.01,0.00,VWS V14.01,2013-02-09 12:30:00,
2013-02-09 06:33:00,42.2,40.9,30.20,ENE,73,0.0,0.0,95,0.00,,---,0.01,0.00,VWS V14.01,2013-02-09 12:33:00,
2013-02-09 06:36:00,42.2,40.9,30.20,ENE,73,0.0,0.0,95,0.00,,---,0.01,0.00,VWS V14.01,2013-02-09 12:36:00,
2013-02-09 06:39:00,42.2,40.9,30.20,ENE,73,0.0,0.0,95,0.00,,---,0.01,0.00,VWS V14.01,2013-02-09 12:39:00,
2013-02-09 06:41:00,42.2,40.9,30.20,ENE,73,0.0,0.0,95,0.00,,---,0.01,0.00,VWS V14.01,2013-02-09 12:41:00,
2013-02-09 06:42:00,42.2,40.9,30.20,ENE,73,0.0,0.0,95,0.00,,---,0.01,0.00,VWS V14.01,2013-02-09 12:42:00,
2013-02-09 06:44:00,42.2,40.9,30.20,ENE,73,0.0,0.0,95,0.00,,---,0.01,0.00,VWS V14.01,2013-02-09 12:44:00,
2013-02-09 06:46:00,42.3,41.0,30.20,ENE,73,0.0,0.0,95,0.00,,---,0.01,0.00,VWS V14.01,2013-02-09 12:46:00,
2013-02-09 06:47:00,42.4,41.1,30.20,ENE,73,0.0,0.0,95,0.00,,---,0.01,0.00,VWS V14.01,2013-02-09 12:47:00,
2013-02-09 06:49:00,42.4,41.1,30.20,ENE,73,0.0,0.0,95,0.00,,---,0.01,0.00,VWS V14.01,2013-02-09 12:49:00,
2013-02-09 06:51:00,42.5,41.2,30.20,ENE,73,0.0,0.0,95,0.00,,---,0.01,0.00,VWS V14.01,2013-02-09 12:51:00,
2013-02-09 06:53:00,42.5,41.2,30.21,ENE,73,0.0,0.0,95,0.00,,---,0.01,0.00,VWS V14.01,2013-02-09 12:53:00,
2013-02-09 06:55:00,42.6,41.3,30.20,ENE,73,0.0,0.0,95,0.00,,---,0.01,0.00,VWS V14.01,2013-02-09 12:55:00,
2013-02-09 06:59:00,42.7,41.4,30.21,ENE,73,0.0,0.0,95,0.00,,---,0.01,0.00,VWS V14.01,2013-02-09 12:59:00,
2013-02-09 07:00:00,42.7,41.4,30.21,ENE,73,0.0,0.0,95,0.00,,---,0.01,0.00,VWS V14.01,2013-02-09 13:00:00,
2013-02-09 07:03:00,42.9,41.6,30.21,ENE,73,0.0,0.0,95,0.00,,---,0.01,0.00,VWS V14.01,2013-02-09 13:03:00,
2013-02-09 07:05:00,42.9,41.6,30.21,ENE,73,0.0,0.0,95,0.00,,---,0.01,0.00,VWS V14.01,2013-02-09 13:05:00,
2013-02-09 07:06:00,42.9,41.8,30.21,ENE,73,0.0,0.0,96,0.00,,---,0.01,0.00,VWS V14.01,2013-02-09 13:06:00,
2013-02-09 07:09:00,43.1,42.0,30.21,ENE,73,0.0,0.0,96,0.00,,---,0.01,0.00,VWS V14.01,2013-02-09 13:09:00,
2013-02-09 07:12:00,43.2,42.1,30.21,ENE,73,0.0,0.0,96,0.00,,---,0.01,0.00,VWS V14.01,2013-02-09 13:12:00,
2013-02-09 07:13:00,43.2,42.1,30.21,ENE,73,0.0,0.0,96,0.00,,---,0.01,0.00,VWS V14.01,2013-02-09 13:13:00,
2013-02-09 07:14:00,43.2,42.1,30.21,ENE,73,0.0,0.0,96,0.00,,---,0.01,0.00,VWS V14.01,2013-02-09 13:14:00,
2013-02-09 07:18:00,43.5,42.4,30.21,ENE,73,0.0,0.0,96,0.00,,---,0.01,7.00,VWS V14.01,2013-02-09 13:18:00,
2013-02-09 07:19:00,43.5,42.4,30.21,ENE,73,0.0,0.0,96,0.00,,---,0.01,7.00,VWS V14.01,2013-02-09 13:19:00,
2013-02-09 07:20:00,43.5,42.4,30.20,ENE,73,0.0,0.0,96,0.00,,---,0.01,7.00,VWS V14.01,2013-02-09 13:20:00,
2013-02-09 07:24:00,43.7,42.6,30.20,ENE,73,0.0,0.0,96,0.00,,---,0.01,7.00,VWS V14.01,2013-02-09 13:24:00,
2013-02-09 07:25:00,43.7,42.6,30.20,ENE,73,0.0,0.0,96,0.00,,---,0.01,9.00,VWS V14.01,2013-02-09 13:25:00,
2013-02-09 07:26:00,43.8,42.7,30.20,ENE,73,0.0,0.0,96,0.00,,---,0.01,9.00,VWS V14.01,2013-02-09 13:26:00,
2013-02-09 07:27:00,43.8,42.7,30.20,ENE,73,0.0,0.0,96,0.00,,---,0.01,9.00,VWS V14.01,2013-02-09 13:27:00,
2013-02-09 07:30:00,44.0,42.9,30.21,ENE,73,0.0,0.0,96,0.00,,---,0.01,11.00,VWS V14.01,2013-02-09 13:30:00,
2013-02-09 07:31:00,44.0,42.9,30.21,ENE,73,0.0,1.0,96,0.00,,---,0.01,11.00,VWS V14.01,2013-02-09 13:31:00,
2013-02-09 07:32:00,44.0,42.9,30.21,ENE,73,0.0,1.0,96,0.00,,---,0.01,11.00,VWS V14.01,2013-02-09 13:32:00,
2013-02-09 07:36:00,44.2,43.1,30.21,ENE,73,0.0,1.0,96,0.00,,---,0.01,12.00,VWS V14.01,2013-02-09 13:36:00,
2013-02-09 07:37:00,44.3,43.2,30.21,ENE,73,0.0,1.0,96,0.00,,---,0.01,12.00,VWS V14.01,2013-02-09 13:37:00,
2013-02-09 07:41:00,44.5,43.4,30.21,ENE,73,0.0,1.0,96,0.00,,---,0.01,16.00,VWS V14.01,2013-02-09 13:41:00,
2013-02-09 07:42:00,44.6,43.5,30.21,ENE,73,0.0,1.0,96,0.00,,---,0.01,16.00,VWS V14.01,2013-02-09 13:42:00,
2013-02-09 07:43:00,44.6,43.5,30.21,ENE,73,0.0,1.0,96,0.00,,---,0.01,16.00,VWS V14.01,2013-02-09 13:43:00,
2013-02-09 07:46:00,44.8,43.7,30.21,ENE,73,0.0,1.0,96,0.00,,---,0.01,18.00,VWS V14.01,2013-02-09 13:46:00,
2013-02-09 07:47:00,44.8,43.7,30.21,ENE,73,0.0,1.0,96,0.00,,---,0.01,19.00,VWS V14.01,2013-02-09 13:47:00,
2013-02-09 07:49:00,44.9,43.8,30.21,ENE,73,0.0,1.0,96,0.00,,---,0.01,21.00,VWS V14.01,2013-02-09 13:49:00,
2013-02-09 07:51:00,45.0,43.9,30.21,ENE,73,0.0,1.0,96,0.00,,---,0.01,21.00,VWS V14.01,2013-02-09 13:51:00,
2013-02-09 07:53:00,45.0,43.9,30.21,ENE,73,0.0,1.0,96,0.00,,---,0.01,21.00,VWS V14.01,2013-02-09 13:53:00,
2013-02-09 07:54:00,45.1,44.0,30.21,ENE,73,0.0,1.0,96,0.00,,---,0.01,21.00,VWS V14.01,2013-02-09 13:54:00,
2013-02-09 07:57:00,45.2,44.1,30.21,ENE,73,0.0,2.0,96,0.00,,---,0.01,19.00,VWS V14.01,2013-02-09 13:57:00,
2013-02-09 07:59:00,45.3,44.2,30.21,ENE,73,1.0,2.0,96,0.00,,---,0.01,23.00,VWS V14.01,2013-02-09 13:59:00,
2013-02-09 08:00:00,45.4,44.3,30.21,ENE,73,0.0,1.0,96,0.00,,---,0.01,21.00,VWS V14.01,2013-02-09 14:00:00,
2013-02-09 08:02:00,45.4,44.3,30.21,ENE,73,0.0,1.0,96,0.00,,---,0.01,25.00,VWS V14.01,2013-02-09 14:02:00,
2013-02-09 08:03:00,45.5,44.4,30.21,ENE,73,0.0,3.0,96,0.00,,---,0.01,26.00,VWS V14.01,2013-02-09 14:03:00,
2013-02-09 08:05:00,45.6,44.5,30.21,ENE,73,1.0,3.0,96,0.00,,---,0.01,30.00,VWS V14.01,2013-02-09 14:05:00,
2013-02-09 08:07:00,45.7,44.6,30.21,ENE,73,0.0,3.0,96,0.00,,---,0.01,30.00,VWS V14.01,2013-02-09 14:07:00,
2013-02-09 08:08:00,45.7,44.6,30.21,ENE,73,0.0,3.0,96,0.00,,---,0.01,30.00,VWS V14.01,2013-02-09 14:08:00,
2013-02-09 08:11:00,45.9,44.8,30.21,ENE,73,1.0,3.0,96,0.00,,---,0.01,46.00,VWS V14.01,2013-02-09 14:11:00,
2013-02-09 08:13:00,45.9,44.8,30.21,ENE,73,0.0,3.0,96,0.00,,---,0.01,54.00,VWS V14.01,2013-02-09 14:13:00,
2013-02-09 08:14:00,46.0,44.9,30.20,ENE,63,3.0,3.0,96,0.00,,---,0.01,56.00,VWS V14.01,2013-02-09 14:14:00,
2013-02-09 08:15:00,46.1,45.0,30.20,NE,40,0.0,3.0,96,0.00,,---,0.01,54.00,VWS V14.01,2013-02-09 14:15:00,
2013-02-09 08:18:00,46.2,45.1,30.20,NE,40,0.0,3.0,96,0.00,,---,0.01,58.00,VWS V14.01,2013-02-09 14:18:00,
2013-02-09 08:19:00,46.3,45.2,30.20,NE,40,0.0,3.0,96,0.00,,---,0.01,58.00,VWS V14.01,2013-02-09 14:19:00,
2013-02-09 08:20:00,46.4,45.3,30.20,NE,40,0.0,3.0,96,0.00,,---,0.01,49.00,VWS V14.01,2013-02-09 14:20:00,
2013-02-09 08:23:00,46.5,45.4,30.20,NE,35,0.0,3.0,96,0.00,,---,0.01,62.00,VWS V14.01,2013-02-09 14:23:00,
2013-02-09 08:25:00,46.6,45.5,30.20,NE,35,0.0,3.0,96,0.00,,---,0.01,69.00,VWS V14.01,2013-02-09 14:25:00,
2013-02-09 08:28:00,46.8,45.7,30.20,NNE,30,1.0,3.0,96,0.00,,---,0.01,63.00,VWS V14.01,2013-02-09 14:28:00,
2013-02-09 08:30:00,46.8,45.7,30.20,NNE,33,2.0,2.0,96,0.00,,---,0.01,67.00,VWS V14.01,2013-02-09 14:30:00,
2013-02-09 08:31:00,46.9,45.8,30.20,NNE,33,0.0,2.0,96,0.00,,---,0.01,93.00,VWS V14.01,2013-02-09 14:31:00,
2013-02-09 08:32:00,46.9,45.8,30.20,NNE,33,0.0,2.0,96,0.00,,---,0.01,100.00,VWS V14.01,2013-02-09 14:32:00,
2013-02-09 08:36:00,47.2,46.1,30.19,ENE,69,2.0,3.0,96,0.00,,---,0.01,199.00,VWS V14.01,2013-02-09 14:36:00,
2013-02-09 08:37:00,47.4,46.3,30.19,ENE,69,0.0,3.0,96,0.00,,---,0.01,211.00,VWS V14.01,2013-02-09 14:37:00,
2013-02-09 08:38:00,47.7,46.9,30.19,ESE,103,0.0,3.0,97,0.00,,---,0.01,163.00,VWS V14.01,2013-02-09 14:38:00,
2013-02-09 08:40:00,48.2,47.4,30.19,ENE,60,3.0,4.0,97,0.00,,---,0.01,142.00,VWS V14.01,2013-02-09 14:40:00,
2013-02-09 08:41:00,48.3,47.5,30.19,East,80,0.0,4.0,97,0.00,,---,0.01,134.00,VWS V14.01,2013-02-09 14:41:00,
2013-02-09 08:45:00,48.6,47.5,30.20,East,85,0.0,4.0,96,0.00,,---,0.01,135.00,VWS V14.01,2013-02-09 14:45:00,
2013-02-09 08:46:00,48.6,47.5,30.19,East,85,0.0,4.0,96,0.00,,---,0.01,120.00,VWS V14.01,2013-02-09 14:46:00,
2013-02-09 08:50:00,49.0,48.2,30.19,East,85,0.0,4.0,97,0.00,,---,0.01,135.00,VWS V14.01,2013-02-09 14:50:00,
2013-02-09 08:51:00,49.1,48.0,30.19,East,101,2.0,4.0,96,0.00,,---,0.01,139.00,VWS V14.01,2013-02-09 14:51:00,
2013-02-09 08:52:00,49.0,47.9,30.19,East,101,1.0,4.0,96,0.00,,---,0.01,142.00,VWS V14.01,2013-02-09 14:52:00,
2013-02-09 08:56:00,49.6,48.8,30.19,East,97,0.0,4.0,97,0.00,,---,0.01,162.00,VWS V14.01,2013-02-09 14:56:00,
2013-02-09 08:58:00,49.9,48.8,30.19,East,96,0.0,4.0,96,0.00,,---,0.01,171.00,VWS V14.01,2013-02-09 14:58:00,
2013-02-09 09:00:00,50.1,49.3,30.19,East,96,0.0,4.0,97,0.00,,---,0.01,165.00,VWS V14.01,2013-02-09 15:00:00,
2013-02-09 09:02:00,50.1,49.0,30.19,East,96,0.0,1.0,96,0.00,,---,0.01,176.00,VWS V14.01,2013-02-09 15:02:00,
2013-02-09 09:03:00,50.5,49.4,30.19,East,96,0.0,1.0,96,0.00,,---,0.01,146.00,VWS V14.01,2013-02-09 15:03:00,
2013-02-09 09:05:00,50.8,49.7,30.19,East,96,1.0,1.0,96,0.00,,---,0.01,172.00,VWS V14.01,2013-02-09 15:05:00,
2013-02-09 09:07:00,50.8,49.7,30.19,East,96,2.0,2.0,96,0.00,,---,0.01,120.00,VWS V14.01,2013-02-09 15:07:00,
2013-02-09 09:08:00,50.7,49.6,30.19,East,86,0.0,2.0,96,0.00,,---,0.01,121.00,VWS V14.01,2013-02-09 15:08:00,
2013-02-09 09:09:00,50.6,49.2,30.19,East,86,0.0,2.0,95,0.00,,---,0.01,121.00,VWS V14.01,2013-02-09 15:09:00,
2013-02-09 09:10:00,50.6,49.2,30.19,East,86,0.0,2.0,95,0.00,,---,0.01,120.00,VWS V14.01,2013-02-09 15:10:00,
2013-02-09 09:12:00,50.7,49.3,30.19,East,86,0.0,2.0,95,0.00,,---,0.01,100.00,VWS V14.01,2013-02-09 15:12:00,
2013-02-09 09:13:00,50.8,49.4,30.19,NE,45,0.0,2.0,95,0.00,,---,0.01,98.00,VWS V14.01,2013-02-09 15:13:00,
2013-02-09 09:14:00,50.8,49.4,30.19,NE,45,0.0,2.0,95,0.00,,---,0.01,95.00,VWS V14.01,2013-02-09 15:14:00,
2013-02-09 09:18:00,51.2,50.1,30.18,NE,51,0.0,5.0,96,0.00,,---,0.01,135.00,VWS V14.01,2013-02-09 15:18:00,
2013-02-09 09:19:00,51.3,50.2,30.18,NE,51,0.0,5.0,96,0.00,,---,0.01,142.00,VWS V14.01,2013-02-09 15:19:00,
2013-02-09 09:20:00,51.3,49.9,30.18,NE,51,0.0,5.0,95,0.00,,---,0.01,142.00,VWS V14.01,2013-02-09 15:20:00,
2013-02-09 09:23:00,51.6,50.2,30.18,NE,52,0.0,5.0,95,0.00,,---,0.01,167.00,VWS V14.01,2013-02-09 15:23:00,
2013-02-09 09:25:00,51.9,50.5,30.18,East,90,1.0,5.0,95,0.00,,---,0.01,153.00,VWS V14.01,2013-02-09 15:25:00,
2013-02-09 09:28:00,52.2,50.8,30.18,NE,42,0.0,5.0,95,0.00,,---,0.01,190.00,VWS V14.01,2013-02-09 15:28:00,
2013-02-09 09:29:00,52.3,50.9,30.18,East,90,0.0,5.0,95,0.00,,---,0.01,199.00,VWS V14.01,2013-02-09 15:29:00,
2013-02-09 09:30:00,52.4,51.0,30.18,East,90,0.0,2.0,95,0.00,,---,0.01,199.00,VWS V14.01,2013-02-09 15:30:00,
2013-02-09 09:33:00,52.4,50.7,30.18,NE,42,0.0,4.0,94,0.00,,---,0.01,202.00,VWS V14.01,2013-02-09 15:33:00,
2013-02-09 09:36:00,52.6,50.9,30.18,SSE,159,0.0,4.0,94,0.00,,---,0.01,174.00,VWS V14.01,2013-02-09 15:36:00,
2013-02-09 09:39:00,52.7,50.7,30.18,NNW,336,0.0,4.0,93,0.00,,---,0.01,153.00,VWS V14.01,2013-02-09 15:39:00,
2013-02-09 09:40:00,52.8,50.8,30.18,NNW,336,0.0,4.0,93,0.00,,---,0.01,151.00,VWS V14.01,2013-02-09 15:40:00,
2013-02-09 09:41:00,53.2,51.5,30.18,NNW,336,0.0,4.0,94,0.00,,---,0.01,160.00,VWS V14.01,2013-02-09 15:41:00,
2013-02-09 09:44:00,53.3,51.3,30.18,NNW,336,1.0,4.0,93,0.00,,---,0.01,141.00,VWS V14.01,2013-02-09 15:44:00,
2013-02-09 09:46:00,53.2,50.9,30.19,ESE,102,0.0,4.0,92,0.00,,---,0.01,113.00,VWS V14.01,2013-02-09 15:46:00,
2013-02-09 09:47:00,53.2,50.9,30.19,ESE,102,0.0,4.0,92,0.00,,---,0.01,104.00,VWS V14.01,2013-02-09 15:47:00,
2013-02-09 09:50:00,53.2,50.9,30.19,ESE,102,0.0,4.0,92,0.00,,---,0.01,111.00,VWS V14.01,2013-02-09 15:50:00,
2013-02-09 09:51:00,53.4,51.1,30.19,North,5,1.0,4.0,92,0.00,,---,0.01,160.00,VWS V14.01,2013-02-09 15:51:00,
2013-02-09 09:52:00,53.5,51.2,30.18,North,5,0.0,4.0,92,0.00,,---,0.01,214.00,VWS V14.01,2013-02-09 15:52:00,
2013-02-09 09:55:00,54.0,51.7,30.18,ENE,72,1.0,4.0,92,0.00,,---,0.01,343.00,VWS V14.01,2013-02-09 15:55:00,
2013-02-09 09:59:00,54.8,52.5,30.18,East,99,0.0,4.0,92,0.00,,---,0.01,376.00,VWS V14.01,2013-02-09 15:59:00,
2013-02-09 10:00:00,55.0,52.4,30.18,ESE,106,3.0,4.0,91,0.00,,---,0.01,381.00,VWS V14.01,2013-02-09 16:00:00,
2013-02-09 10:03:00,55.2,52.0,30.18,East,101,6.0,6.0,89,0.00,,---,0.01,274.00,VWS V14.01,2013-02-09 16:03:00,
2013-02-09 10:04:00,55.2,52.0,30.18,East,101,0.0,7.0,89,0.00,,---,0.01,211.00,VWS V14.01,2013-02-09 16:04:00,
2013-02-09 10:06:00,55.4,52.2,30.18,SSW,200,1.0,7.0,89,0.00,,---,0.01,195.00,VWS V14.01,2013-02-09 16:06:00,
2013-02-09 10:09:00,55.5,52.3,30.18,ENE,61,3.0,7.0,89,0.00,,---,0.01,202.00,VWS V14.01,2013-02-09 16:09:00,
2013-02-09 10:12:00,55.9,52.4,30.18,ESE,122,0.0,7.0,88,0.00,,---,0.01,181.00,VWS V14.01,2013-02-09 16:12:00,
2013-02-09 10:15:00,56.1,52.3,30.18,East,84,1.0,7.0,87,0.00,,---,0.01,148.00,VWS V14.01,2013-02-09 16:15:00,
2013-02-09 10:17:00,56.1,52.3,30.18,SE,130,0.0,7.0,87,0.00,,---,0.01,160.00,VWS V14.01,2013-02-09 16:17:00,
2013-02-09 10:20:00,56.0,52.5,30.18,SE,130,0.0,7.0,88,0.00,,---,0.01,139.00,VWS V14.01,2013-02-09 16:20:00,
2013-02-09 10:21:00,56.0,52.5,30.18,SE,130,0.0,7.0,88,0.00,,---,0.01,132.00,VWS V14.01,2013-02-09 16:21:00,
2013-02-09 10:22:00,56.1,52.6,30.18,ENE,69,2.0,7.0,88,0.00,,---,0.01,156.00,VWS V14.01,2013-02-09 16:22:00,
2013-02-09 10:25:00,55.9,52.1,30.18,SE,132,1.0,7.0,87,0.00,,---,0.01,137.00,VWS V14.01,2013-02-09 16:25:00,
2013-02-09 10:26:00,55.9,52.1,30.18,SE,132,0.0,7.0,87,0.00,,---,0.01,158.00,VWS V14.01,2013-02-09 16:26:00,
2013-02-09 10:27:00,56.0,52.5,30.18,SE,134,1.0,7.0,88,0.00,,---,0.01,156.00,VWS V14.01,2013-02-09 16:27:00,
2013-02-09 10:30:00,55.9,52.4,30.18,ENE,65,1.0,3.0,88,0.00,,---,0.01,197.00,VWS V14.01,2013-02-09 16:30:00,
2013-02-09 10:31:00,56.0,52.5,30.18,ENE,65,0.0,3.0,88,0.00,,---,0.01,181.00,VWS V14.01,2013-02-09 16:31:00,
2013-02-09 10:33:00,56.1,52.6,30.18,ENE,65,0.0,3.0,88,0.00,,---,0.01,250.00,VWS V14.01,2013-02-09 16:33:00,
2013-02-09 10:36:00,57.0,53.2,30.18,SSE,163,4.0,4.0,87,0.00,,---,0.01,186.00,VWS V14.01,2013-02-09 16:36:00,
2013-02-09 10:38:00,56.8,52.7,30.18,ESE,111,1.0,4.0,86,0.00,,---,0.01,183.00,VWS V14.01,2013-02-09 16:38:00,
2013-02-09 10:39:00,56.8,52.7,30.18,SE,136,1.0,4.0,86,0.00,,---,0.01,171.00,VWS V14.01,2013-02-09 16:39:00,
2013-02-09 10:41:00,56.9,53.1,30.18,SE,136,0.0,4.0,87,0.00,,---,0.01,183.00,VWS V14.01,2013-02-09 16:41:00,
2013-02-09 10:42:00,57.0,53.2,30.18,NNE,17,0.0,4.0,87,0.00,,---,0.01,169.00,VWS V14.01,2013-02-09 16:42:00,
2013-02-09 10:44:00,57.1,53.3,30.18,North,9,0.0,4.0,87,0.00,,---,0.01,165.00,VWS V14.01,2013-02-09 16:44:00,
2013-02-09 10:45:00,57.2,53.1,30.17,North,9,1.0,4.0,86,0.00,,---,0.01,214.00,VWS V14.01,2013-02-09 16:45:00,
2013-02-09 10:47:00,57.4,53.6,30.17,North,9,0.0,4.0,87,0.00,,---,0.01,209.00,VWS V14.01,2013-02-09 16:47:00,
2013-02-09 10:49:00,57.6,53.8,30.17,NNE,15,3.0,4.0,87,0.00,,---,0.01,309.00,VWS V14.01,2013-02-09 16:49:00,
2013-02-09 10:51:00,57.6,53.5,30.17,NNE,13,2.0,4.0,86,0.00,,---,0.01,237.00,VWS V14.01,2013-02-09 16:51:00,
2013-02-09 10:54:00,57.9,53.7,30.17,SE,131,4.0,4.0,86,0.00,,---,0.01,287.00,VWS V14.01,2013-02-09 16:54:00,
2013-02-09 10:56:00,57.9,53.4,30.17,SE,126,0.0,5.0,85,0.00,,---,0.01,236.00,VWS V14.01,2013-02-09 16:56:00,
2013-02-09 10:57:00,57.9,53.4,30.17,SE,126,0.0,5.0,85,0.00,,---,0.01,216.00,VWS V14.01,2013-02-09 16:57:00,
2013-02-09 10:58:00,58.0,53.8,30.17,North,351,2.0,5.0,86,0.00,,---,0.01,213.00,VWS V14.01,2013-02-09 16:58:00,
2013-02-09 10:59:00,58.2,53.7,30.17,SE,129,0.0,5.0,85,0.00,,---,0.01,229.00,VWS V14.01,2013-02-09 16:59:00,
2013-02-09 11:00:00,58.2,53.7,30.17,SE,129,0.0,5.0,85,0.00,,---,0.01,229.00,VWS V14.01,2013-02-09 17:00:00,
2013-02-09 11:01:00,58.0,53.5,30.17,ESE,121,0.0,4.0,85,0.00,,---,0.01,216.00,VWS V14.01,2013-02-09 17:01:00,
2013-02-09 11:04:00,58.2,54.0,30.17,ENE,68,0.0,4.0,86,0.00,,---,0.01,253.00,VWS V14.01,2013-02-09 17:04:00,
2013-02-09 11:07:00,58.3,54.1,30.16,SE,143,0.0,4.0,86,0.00,,---,0.01,271.00,VWS V14.01,2013-02-09 17:07:00,
2013-02-09 11:08:00,58.6,54.4,30.16,SE,144,0.0,4.0,86,0.00,,---,0.01,346.00,VWS V14.01,2013-02-09 17:08:00,
2013-02-09 11:09:00,58.7,54.5,30.16,SE,133,2.0,4.0,86,0.00,,---,0.01,346.00,VWS V14.01,2013-02-09 17:09:00,
2013-02-09 11:11:00,59.0,54.5,30.16,South,178,0.0,4.0,85,0.00,,---,0.01,200.00,VWS V14.01,2013-02-09 17:11:00,
2013-02-09 11:12:00,59.2,54.7,30.16,ESE,122,1.0,5.0,85,0.00,,---,0.01,279.00,VWS V14.01,2013-02-09 17:12:00,
2013-02-09 11:14:00,59.3,54.8,30.16,NW,325,4.0,7.0,85,0.00,,---,0.01,211.00,VWS V14.01,2013-02-09 17:14:00,
2013-02-09 11:15:00,59.2,54.4,30.16,East,80,2.0,7.0,84,0.00,,---,0.01,216.00,VWS V14.01,2013-02-09 17:15:00,
2013-02-09 11:18:00,59.1,54.6,30.16,ESE,108,0.0,7.0,85,0.00,,---,0.01,281.00,VWS V14.01,2013-02-09 17:18:00,
2013-02-09 11:19:00,59.1,54.6,30.16,ESE,111,0.0,7.0,85,0.00,,---,0.01,262.00,VWS V14.01,2013-02-09 17:19:00,
2013-02-09 11:20:00,59.3,54.8,30.16,ESE,111,0.0,7.0,85,0.00,,---,0.01,234.00,VWS V14.01,2013-02-09 17:20:00,
2013-02-09 11:23:00,59.7,54.9,30.16,ENE,63,0.0,7.0,84,0.00,,---,0.01,211.00,VWS V14.01,2013-02-09 17:23:00,
2013-02-09 11:24:00,59.7,54.9,30.16,ENE,63,0.0,7.0,84,0.00,,---,0.01,211.00,VWS V14.01,2013-02-09 17:24:00,
2013-02-09 11:25:00,59.8,55.0,30.16,ENE,66,2.0,7.0,84,0.00,,---,0.01,206.00,VWS V14.01,2013-02-09 17:25:00,
2013-02-09 11:29:00,59.6,54.8,30.16,South,189,3.0,8.0,84,0.00,,---,0.01,193.00,VWS V14.01,2013-02-09 17:29:00,
2013-02-09 11:30:00,59.5,54.7,30.16,East,92,1.0,8.0,84,0.00,,---,0.01,200.00,VWS V14.01,2013-02-09 17:30:00,
2013-02-09 11:31:00,59.5,54.7,30.16,SE,129,2.0,3.0,84,0.00,,---,0.01,204.00,VWS V14.01,2013-02-09 17:31:00,
2013-02-09 11:34:00,59.3,54.8,30.16,ESE,113,0.0,6.0,85,0.00,,---,0.01,225.00,VWS V14.01,2013-02-09 17:34:00,
2013-02-09 11:35:00,59.3,54.5,30.16,North,360,1.0,6.0,84,0.00,,---,0.01,214.00,VWS V14.01,2013-02-09 17:35:00,
2013-02-09 11:37:00,59.5,55.0,30.16,ESE,102,1.0,6.0,85,0.00,,---,0.01,216.00,VWS V14.01,2013-02-09 17:37:00,
2013-02-09 11:39:00,59.7,55.2,30.15,SSW,211,0.0,6.0,85,0.00,,---,0.01,234.00,VWS V14.01,2013-02-09 17:39:00,
2013-02-09 11:40:00,59.7,54.9,30.15,North,11,0.0,6.0,84,0.00,,---,0.01,223.00,VWS V14.01,2013-02-09 17:40:00,
2013-02-09 11:42:00,59.6,54.8,30.15,NNE,19,1.0,6.0,84,0.00,,---,0.01,178.00,VWS V14.01,2013-02-09 17:42:00,
2013-02-09 11:45:00,59.6,54.8,30.15,ENE,67,1.0,6.0,84,0.00,,---,0.01,141.00,VWS V14.01,2013-02-09 17:45:00,
2013-02-09 11:48:00,59.6,54.8,30.15,ENE,67,0.0,6.0,84,0.00,,---,0.01,192.00,VWS V14.01,2013-02-09 17:48:00,
2013-02-09 11:50:00,59.8,55.3,30.15,ENE,68,0.0,6.0,85,0.00,,---,0.01,192.00,VWS V14.01,2013-02-09 17:50:00,
2013-02-09 11:51:00,59.9,55.4,30.15,ENE,68,0.0,6.0,85,0.00,,---,0.01,200.00,VWS V14.01,2013-02-09 17:51:00,
2013-02-09 11:53:00,59.9,55.1,30.15,WNW,282,1.0,6.0,84,0.00,,---,0.01,207.00,VWS V14.01,2013-02-09 17:53:00,
2013-02-09 11:55:00,59.9,55.4,30.15,ESE,117,1.0,6.0,85,0.00,,---,0.01,165.00,VWS V14.01,2013-02-09 17:55:00,
2013-02-09 11:56:00,60.0,55.5,30.15,SSE,155,2.0,6.0,85,0.00,,---,0.01,165.00,VWS V14.01,2013-02-09 17:56:00,
2013-02-09 11:59:00,59.6,54.8,30.15,NE,53,2.0,6.0,84,0.00,,---,0.01,171.00,VWS V14.01,2013-02-09 17:59:00,
2013-02-09 12:00:00,59.6,54.8,30.15,NE,52,2.0,6.0,84,0.00,,---,0.01,171.00,VWS V14.01,2013-02-09 18:00:00,
2013-02-09 12:01:00,59.5,54.7,30.15,ESE,113,0.0,3.0,84,0.00,,---,0.01,178.00,VWS V14.01,2013-02-09 18:01:00,
2013-02-09 12:02:00,59.4,54.9,30.15,ESE,105,1.0,3.0,85,0.00,,---,0.01,188.00,VWS V14.01,2013-02-09 18:02:00,
2013-02-09 12:04:00,59.7,55.2,30.15,ESE,104,1.0,3.0,85,0.00,,---,0.01,227.00,VWS V14.01,2013-02-09 18:04:00,
2013-02-09 12:06:00,59.7,55.2,30.15,SE,139,3.0,3.0,85,0.00,,---,0.01,232.00,VWS V14.01,2013-02-09 18:06:00,
2013-02-09 12:07:00,59.8,55.3,30.15,ESE,123,2.0,3.0,85,0.00,,---,0.01,220.00,VWS V14.01,2013-02-09 18:07:00,
2013-02-09 12:08:00,59.9,55.4,30.15,SSE,149,3.0,4.0,85,0.00,,---,0.01,220.00,VWS V14.01,2013-02-09 18:08:00,
2013-02-09 12:11:00,59.9,55.4,30.14,ESE,112,1.0,5.0,85,0.00,,---,0.01,230.00,VWS V14.01,2013-02-09 18:11:00,
2013-02-09 12:12:00,60.1,55.6,30.14,SSE,167,2.0,5.0,85,0.00,,---,0.01,234.00,VWS V14.01,2013-02-09 18:12:00,
2013-02-09 12:14:00,60.2,55.7,30.14,SSE,161,0.0,5.0,85,0.00,,---,0.01,288.00,VWS V14.01,2013-02-09 18:14:00,
2013-02-09 12:15:00,60.5,56.0,30.14,SSE,154,0.0,5.0,85,0.00,,---,0.01,267.00,VWS V14.01,2013-02-09 18:15:00,
2013-02-09 12:17:00,60.6,55.8,30.14,SE,146,3.0,6.0,84,0.00,,---,0.01,230.00,VWS V14.01,2013-02-09 18:17:00,
2013-02-09 12:18:00,60.6,55.8,30.14,SE,145,3.0,6.0,84,0.00,,---,0.01,218.00,VWS V14.01,2013-02-09 18:18:00,
2013-02-09 12:20:00,60.5,55.3,30.14,ENE,77,2.0,7.0,83,0.00,,---,0.01,232.00,VWS V14.01,2013-02-09 18:20:00,
2013-02-09 12:23:00,60.2,55.3,30.14,SE,136,0.0,7.0,84,0.00,,---,0.01,169.00,VWS V14.01,2013-02-09 18:23:00,
2013-02-09 12:26:00,60.3,55.8,30.13,ENE,65,0.0,7.0,85,0.00,,---,0.01,137.00,VWS V14.01,2013-02-09 18:26:00,
2013-02-09 12:28:00,60.4,55.5,30.13,North,5,1.0,7.0,84,0.00,,---,0.01,132.00,VWS V14.01,2013-02-09 18:28:00,
2013-02-09 12:29:00,60.4,55.5,30.13,North,5,0.0,7.0,84,0.00,,---,0.01,137.00,VWS V14.01,2013-02-09 18:29:00,
2013-02-09 12:30:00,60.5,56.0,30.13,SSE,168,3.0,7.0,85,0.00,,---,0.01,137.00,VWS V14.01,2013-02-09 18:30:00,
2013-02-09 12:31:00,60.4,55.9,30.13,SSE,151,1.0,4.0,85,0.00,,---,0.01,169.00,VWS V14.01,2013-02-09 18:31:00,
2013-02-09 12:35:00,60.5,56.0,30.12,East,101,0.0,4.0,85,0.00,,---,0.01,185.00,VWS V14.01,2013-02-09 18:35:00,
2013-02-09 12:38:00,60.6,55.8,30.12,SE,146,1.0,4.0,84,0.00,,---,0.01,243.00,VWS V14.01,2013-02-09 18:38:00,
2013-02-09 12:40:00,60.8,56.3,30.12,SE,146,0.0,4.0,85,0.00,,---,0.01,206.00,VWS V14.01,2013-02-09 18:40:00,
2013-02-09 12:45:00,61.0,56.1,30.12,SE,146,1.0,4.0,84,0.00,,---,0.01,190.00,VWS V14.01,2013-02-09 18:45:00,
2013-02-09 12:50:00,61.3,56.4,30.11,SE,146,2.0,5.0,84,0.00,,---,0.01,192.00,VWS V14.01,2013-02-09 18:50:00,
2013-02-09 12:51:00,61.2,56.3,30.11,SE,138,1.0,5.0,84,0.00,,---,0.01,195.00,VWS V14.01,2013-02-09 18:51:00,
2013-02-09 12:54:00,61.4,56.5,30.11,SE,126,0.0,5.0,84,0.00,,---,0.01,167.00,VWS V14.01,2013-02-09 18:54:00,
2013-02-09 12:56:00,61.4,56.5,30.11,South,170,1.0,7.0,84,0.00,,---,0.01,153.00,VWS V14.01,2013-02-09 18:56:00,
2013-02-09 12:57:00,61.3,56.4,30.11,South,178,0.0,7.0,84,0.00,,---,0.01,142.00,VWS V14.01,2013-02-09 18:57:00,
2013-02-09 13:00:00,61.1,56.2,30.11,SSE,152,4.0,7.0,84,0.00,,---,0.01,134.00,VWS V14.01,2013-02-09 19:00:00,
2013-02-09 13:01:00,60.9,56.0,30.11,SE,140,1.0,5.0,84,0.00,,---,0.01,118.00,VWS V14.01,2013-02-09 19:01:00,
2013-02-09 13:02:00,60.9,56.0,30.11,SE,129,2.0,5.0,84,0.00,,---,0.01,120.00,VWS V14.01,2013-02-09 19:02:00,
2013-02-09 13:03:00,60.8,56.3,30.11,SE,128,0.0,5.0,85,0.00,,---,0.01,132.00,VWS V14.01,2013-02-09 19:03:00,
2013-02-09 13:06:00,61.1,56.6,30.11,SE,128,2.0,5.0,85,0.00,,---,0.01,127.00,VWS V14.01,2013-02-09 19:06:00,
2013-02-09 13:07:00,61.1,56.6,30.11,SE,128,0.0,5.0,85,0.00,,---,0.01,123.00,VWS V14.01,2013-02-09 19:07:00,
2013-02-09 13:08:00,61.0,56.1,30.10,SE,128,1.0,5.0,84,0.00,,---,0.01,146.00,VWS V14.01,2013-02-09 19:08:00,
2013-02-09 13:10:00,60.9,56.4,30.10,SE,128,0.0,5.0,85,0.00,,---,0.01,132.00,VWS V14.01,2013-02-09 19:10:00,
2013-02-09 13:11:00,61.0,56.5,30.10,SE,128,0.0,5.0,85,0.00,,---,0.01,121.00,VWS V14.01,2013-02-09 19:11:00,
2013-02-09 13:15:00,61.1,56.6,30.10,SE,131,0.0,5.0,85,0.00,,---,0.01,141.00,VWS V14.01,2013-02-09 19:15:00,
2013-02-09 13:16:00,61.1,56.6,30.10,SE,131,1.0,5.0,85,0.00,,---,0.01,163.00,VWS V14.01,2013-02-09 19:16:00,
2013-02-09 13:17:00,61.2,56.7,30.10,NE,38,1.0,5.0,85,0.00,,---,0.01,183.00,VWS V14.01,2013-02-09 19:17:00,
2013-02-09 13:20:00,61.4,56.9,30.09,South,174,0.0,5.0,85,0.00,,---,0.01,230.00,VWS V14.01,2013-02-09 19:20:00,
2013-02-09 13:23:00,61.8,57.2,30.09,East,84,0.0,5.0,85,0.00,,---,0.01,179.00,VWS V14.01,2013-02-09 19:23:00,
2013-02-09 13:25:00,61.6,56.7,30.09,South,185,2.0,5.0,84,0.00,,---,0.01,225.00,VWS V14.01,2013-02-09 19:25:00,
2013-02-09 13:26:00,61.9,57.3,30.09,SSE,160,0.0,5.0,85,0.00,,---,0.01,276.00,VWS V14.01,2013-02-09 19:26:00,
2013-02-09 13:28:00,62.4,57.8,30.08,ESE,116,0.0,5.0,85,0.00,,---,0.01,350.00,VWS V14.01,2013-02-09 19:28:00,
2013-02-09 13:30:00,62.9,57.7,30.08,SE,128,0.0,0.0,83,0.00,,---,0.01,230.00,VWS V14.01,2013-02-09 19:30:00,
2013-02-09 13:32:00,62.9,57.7,30.08,SE,143,5.0,5.0,83,0.00,,---,0.01,207.00,VWS V14.01,2013-02-09 19:32:00,
2013-02-09 13:34:00,62.6,57.4,30.08,East,93,0.0,5.0,83,0.00,,---,0.01,183.00,VWS V14.01,2013-02-09 19:34:00,
2013-02-09 13:35:00,62.5,57.3,30.08,SSE,167,3.0,5.0,83,0.00,,---,0.01,186.00,VWS V14.01,2013-02-09 19:35:00,
2013-02-09 13:36:00,62.4,57.2,30.08,SE,138,3.0,5.0,83,0.00,,---,0.01,192.00,VWS V14.01,2013-02-09 19:36:00,
2013-02-09 13:37:00,62.4,57.2,30.08,SSE,150,4.0,5.0,83,0.00,,---,0.01,179.00,VWS V14.01,2013-02-09 19:37:00,
2013-02-09 13:40:00,62.2,57.3,30.08,SE,144,1.0,5.0,84,0.00,,---,0.01,185.00,VWS V14.01,2013-02-09 19:40:00,
2013-02-09 13:42:00,62.6,58.0,30.08,South,172,3.0,5.0,85,0.00,,---,0.01,230.00,VWS V14.01,2013-02-09 19:42:00,
2013-02-09 13:45:00,63.0,58.1,30.08,ENE,74,3.0,5.0,84,0.00,,---,0.01,220.00,VWS V14.01,2013-02-09 19:45:00,
2013-02-09 13:46:00,63.1,58.2,30.08,East,86,2.0,5.0,84,0.00,,---,0.01,220.00,VWS V14.01,2013-02-09 19:46:00,
2013-02-09 13:48:00,63.1,57.9,30.07,SE,144,1.0,5.0,83,0.00,,---,0.01,181.00,VWS V14.01,2013-02-09 19:48:00,
2013-02-09 13:51:00,62.6,58.0,30.07,South,185,0.0,6.0,85,0.00,,---,0.01,204.00,VWS V14.01,2013-02-09 19:51:00,
2013-02-09 13:52:00,62.6,57.7,30.07,South,180,0.0,6.0,84,0.00,,---,0.01,193.00,VWS V14.01,2013-02-09 19:52:00,
2013-02-09 13:55:00,62.8,57.6,30.07,South,178,2.0,6.0,83,0.00,,---,0.01,176.00,VWS V14.01,2013-02-09 19:55:00,
2013-02-09 13:56:00,62.8,57.9,30.07,SSE,166,0.0,6.0,84,0.00,,---,0.01,169.00,VWS V14.01,2013-02-09 19:56:00,
2013-02-09 13:57:00,62.8,57.9,30.07,ESE,103,2.0,6.0,84,0.00,,---,0.01,178.00,VWS V14.01,2013-02-09 19:57:00,
2013-02-09 13:59:00,63.2,58.3,30.07,ESE,105,1.0,6.0,84,0.00,,---,0.01,174.00,VWS V14.01,2013-02-09 19:59:00,
2013-02-09 14:00:00,63.2,58.3,30.07,ESE,105,2.0,6.0,84,0.00,,---,0.01,174.00,VWS V14.01,2013-02-09 20:00:00,
2013-02-09 14:01:00,63.3,58.1,30.07,SE,146,0.0,3.0,83,0.00,,---,0.01,185.00,VWS V14.01,2013-02-09 20:01:00,
2013-02-09 14:02:00,63.3,58.1,30.07,SE,146,1.0,3.0,83,0.00,,---,0.01,176.00,VWS V14.01,2013-02-09 20:02:00,
2013-02-09 14:06:00,63.2,58.0,30.07,SSE,149,3.0,7.0,83,0.00,,---,0.01,174.00,VWS V14.01,2013-02-09 20:06:00,
2013-02-09 14:08:00,63.0,57.8,30.07,SE,130,1.0,7.0,83,0.00,,---,0.01,156.00,VWS V14.01,2013-02-09 20:08:00,
2013-02-09 14:11:00,62.8,57.9,30.07,SE,132,0.0,7.0,84,0.00,,---,0.01,130.00,VWS V14.01,2013-02-09 20:11:00,
2013-02-09 14:12:00,62.7,57.8,30.07,SE,139,0.0,7.0,84,0.00,,---,0.01,149.00,VWS V14.01,2013-02-09 20:12:00,
2013-02-09 14:14:00,62.7,57.8,30.07,SE,135,1.0,7.0,84,0.00,,---,0.01,190.00,VWS V14.01,2013-02-09 20:14:00,
2013-02-09 14:16:00,62.8,58.2,30.07,SE,136,0.0,7.0,85,0.00,,---,0.01,216.00,VWS V14.01,2013-02-09 20:16:00,
2013-02-09 14:18:00,63.4,58.8,30.07,SE,139,1.0,7.0,85,0.00,,---,0.01,225.00,VWS V14.01,2013-02-09 20:18:00,
2013-02-09 14:19:00,63.4,58.5,30.07,South,177,0.0,7.0,84,0.00,,---,0.01,202.00,VWS V14.01,2013-02-09 20:19:00,
2013-02-09 14:20:00,63.4,58.5,30.07,South,177,2.0,7.0,84,0.00,,---,0.01,232.00,VWS V14.01,2013-02-09 20:20:00,
2013-02-09 14:22:00,63.4,58.2,30.07,SSE,149,3.0,7.0,83,0.00,,---,0.01,195.00,VWS V14.01,2013-02-09 20:22:00,
2013-02-09 14:24:00,63.3,58.1,30.06,ESE,114,3.0,7.0,83,0.00,,---,0.01,190.00,VWS V14.01,2013-02-09 20:24:00,
2013-02-09 14:25:00,63.3,58.1,30.06,SE,140,2.0,7.0,83,0.00,,---,0.01,190.00,VWS V14.01,2013-02-09 20:25:00,
2013-02-09 14:29:00,63.6,58.7,30.06,NE,39,3.0,7.0,84,0.00,,---,0.01,165.00,VWS V14.01,2013-02-09 20:29:00,
2013-02-09 14:30:00,63.8,58.9,30.06,NE,42,1.0,3.0,84,0.00,,---,0.01,165.00,VWS V14.01,2013-02-09 20:30:00,
2013-02-09 14:32:00,64.0,58.7,30.06,NE,42,0.0,3.0,83,0.00,,---,0.01,146.00,VWS V14.01,2013-02-09 20:32:00,
2013-02-09 14:35:00,63.4,57.8,30.06,SSW,192,3.0,6.0,82,0.00,,---,0.01,105.00,VWS V14.01,2013-02-09 20:35:00,
2013-02-09 14:36:00,63.1,57.9,30.06,SSE,153,1.0,6.0,83,0.00,,---,0.01,118.00,VWS V14.01,2013-02-09 20:36:00,
2013-02-09 14:37:00,63.0,58.1,30.06,SSE,159,1.0,6.0,84,0.00,,---,0.01,104.00,VWS V14.01,2013-02-09 20:37:00,
2013-02-09 14:41:00,62.7,57.8,30.06,East,85,1.0,6.0,84,0.00,,---,0.01,125.00,VWS V14.01,2013-02-09 20:41:00,
2013-02-09 14:42:00,62.9,58.3,30.06,East,85,1.0,6.0,85,0.00,,---,0.01,153.00,VWS V14.01,2013-02-09 20:42:00,
2013-02-09 14:46:00,63.1,58.5,30.06,SSE,161,5.0,6.0,85,0.00,,---,0.01,132.00,VWS V14.01,2013-02-09 20:46:00,
2013-02-09 14:47:00,63.1,58.2,30.06,East,99,0.0,6.0,84,0.00,,---,0.01,135.00,VWS V14.01,2013-02-09 20:47:00,
2013-02-09 14:48:00,63.0,58.4,30.06,SSE,157,5.0,7.0,85,0.00,,---,0.01,162.00,VWS V14.01,2013-02-09 20:48:00,
2013-02-09 14:52:00,63.0,58.4,30.06,NNE,17,3.0,7.0,85,0.00,,---,0.01,155.00,VWS V14.01,2013-02-09 20:52:00,
2013-02-09 14:53:00,63.1,58.5,30.05,SE,142,2.0,7.0,85,0.00,,---,0.01,153.00,VWS V14.01,2013-02-09 20:53:00,
2013-02-09 14:56:00,63.0,58.4,30.05,SE,125,2.0,7.0,85,0.00,,---,0.01,125.00,VWS V14.01,2013-02-09 20:56:00,
2013-02-09 14:57:00,63.0,58.4,30.05,SE,141,4.0,7.0,85,0.00,,---,0.01,125.00,VWS V14.01,2013-02-09 20:57:00,
2013-02-09 14:58:00,63.1,58.5,30.05,ESE,123,3.0,7.0,85,0.00,,---,0.01,137.00,VWS V14.01,2013-02-09 20:58:00,
2013-02-09 14:59:00,63.1,58.5,30.05,ESE,123,1.0,7.0,85,0.00,,---,0.01,137.00,VWS V14.01,2013-02-09 20:59:00,
2013-02-09 15:00:00,63.1,58.5,30.05,ESE,121,5.0,7.0,85,0.00,,---,0.01,137.00,VWS V14.01,2013-02-09 21:00:00,
2013-02-09 15:02:00,63.1,58.5,30.05,SE,128,1.0,5.0,85,0.00,,---,0.01,113.00,VWS V14.01,2013-02-09 21:02:00,
2013-02-09 15:05:00,63.2,58.6,30.05,ESE,119,1.0,5.0,85,0.00,,---,0.01,105.00,VWS V14.01,2013-02-09 21:05:00,
2013-02-09 15:08:00,63.1,58.5,30.05,East,93,2.0,5.0,85,0.00,,---,0.01,76.00,VWS V14.01,2013-02-09 21:08:00,
2013-02-09 15:11:00,63.1,58.8,30.05,ESE,112,0.0,5.0,86,0.00,,---,0.01,134.00,VWS V14.01,2013-02-09 21:11:00,
2013-02-09 15:12:00,63.1,58.8,30.04,ESE,112,1.0,5.0,86,0.00,,---,0.01,134.00,VWS V14.01,2013-02-09 21:12:00,
2013-02-09 15:13:00,63.2,59.0,30.04,ESE,112,0.0,5.0,86,0.00,,---,0.01,134.00,VWS V14.01,2013-02-09 21:13:00,
2013-02-09 15:17:00,63.6,59.0,30.04,ESE,118,3.0,5.0,85,0.00,,---,0.01,139.00,VWS V14.01,2013-02-09 21:17:00,
2013-02-09 15:19:00,63.4,58.8,30.04,SSE,159,0.0,5.0,85,0.00,,---,0.01,149.00,VWS V14.01,2013-02-09 21:19:00,
2013-02-09 15:22:00,63.8,59.2,30.04,ESE,119,2.0,5.0,85,0.00,,---,0.01,174.00,VWS V14.01,2013-02-09 21:22:00,
2013-02-09 15:23:00,63.9,59.3,30.04,SSE,167,3.0,5.0,85,0.00,,---,0.01,176.00,VWS V14.01,2013-02-09 21:23:00,
2013-02-09 15:25:00,63.9,59.3,30.04,ESE,122,1.0,5.0,85,0.00,,---,0.01,202.00,VWS V14.01,2013-02-09 21:25:00,
2013-02-09 15:26:00,64.0,59.4,30.03,ESE,121,0.0,5.0,85,0.00,,---,0.01,206.00,VWS V14.01,2013-02-09 21:26:00,
2013-02-09 15:28:00,64.4,59.5,30.03,ESE,121,0.0,5.0,84,0.00,,---,0.01,294.00,VWS V14.01,2013-02-09 21:28:00,
2013-02-09 15:29:00,64.5,59.9,30.03,ESE,117,3.0,5.0,85,0.00,,---,0.01,294.00,VWS V14.01,2013-02-09 21:29:00,
2013-02-09 15:30:00,64.7,59.8,30.03,SE,126,1.0,5.0,84,0.00,,---,0.01,221.00,VWS V14.01,2013-02-09 21:30:00,
2013-02-09 15:31:00,64.9,60.0,30.03,SE,126,0.0,1.0,84,0.00,,---,0.01,195.00,VWS V14.01,2013-02-09 21:31:00,
2013-02-09 15:33:00,65.2,59.9,30.03,SE,129,3.0,3.0,83,0.00,,---,0.01,190.00,VWS V14.01,2013-02-09 21:33:00,
2013-02-09 15:34:00,65.3,60.0,30.03,SE,134,0.0,3.0,83,0.00,,---,0.01,192.00,VWS V14.01,2013-02-09 21:34:00,
2013-02-09 15:35:00,65.4,60.1,30.03,SE,130,1.0,3.0,83,0.00,,---,0.01,192.00,VWS V14.01,2013-02-09 21:35:00,
2013-02-09 15:39:00,65.1,59.8,30.03,East,92,0.0,6.0,83,0.00,,---,0.01,153.00,VWS V14.01,2013-02-09 21:39:00,
2013-02-09 15:40:00,65.1,59.8,30.03,East,92,1.0,6.0,83,0.00,,---,0.01,153.00,VWS V14.01,2013-02-09 21:40:00,
2013-02-09 15:42:00,65.3,60.0,30.02,SSE,148,0.0,6.0,83,0.00,,---,0.01,146.00,VWS V14.01,2013-02-09 21:42:00,
2013-02-09 15:45:00,65.2,59.9,30.02,ESE,119,0.0,6.0,83,0.00,,---,0.01,179.00,VWS V14.01,2013-02-09 21:45:00,
2013-02-09 15:46:00,65.2,59.9,30.01,ESE,119,0.0,6.0,83,0.00,,---,0.01,186.00,VWS V14.01,2013-02-09 21:46:00,
2013-02-09 15:49:00,65.7,60.4,30.00,SE,146,2.0,6.0,83,0.00,,---,0.01,192.00,VWS V14.01,2013-02-09 21:49:00,
2013-02-09 15:51:00,65.8,60.2,30.00,ENE,59,0.0,6.0,82,0.00,,---,0.01,225.00,VWS V14.01,2013-02-09 21:51:00,
2013-02-09 15:52:00,65.8,60.2,30.00,ENE,67,1.0,6.0,82,0.00,,---,0.01,230.00,VWS V14.01,2013-02-09 21:52:00,
2013-02-09 15:56:00,65.9,60.3,30.00,SSE,161,2.0,6.0,82,0.00,,---,0.01,179.00,VWS V14.01,2013-02-09 21:56:00,
2013-02-09 15:57:00,65.8,60.2,30.00,SSW,209,2.0,6.0,82,0.00,,---,0.01,179.00,VWS V14.01,2013-02-09 21:57:00,
2013-02-09 16:00:00,65.8,60.2,30.00,ESE,107,5.0,8.0,82,0.00,,---,0.01,207.00,VWS V14.01,2013-02-09 22:00:00,
2013-02-09 16:02:00,66.0,60.3,30.00,ESE,123,2.0,7.0,82,0.00,,---,0.01,163.00,VWS V14.01,2013-02-09 22:02:00,
2013-02-09 16:03:00,66.0,60.3,30.00,SSE,159,5.0,8.0,82,0.00,,---,0.01,169.00,VWS V14.01,2013-02-09 22:03:00,
2013-02-09 16:05:00,65.9,60.3,30.00,ESE,104,2.0,8.0,82,0.00,,---,0.01,134.00,VWS V14.01,2013-02-09 22:05:00,
2013-02-09 16:08:00,65.8,60.2,30.01,ENE,78,1.0,8.0,82,0.00,,---,0.01,139.00,VWS V14.01,2013-02-09 22:08:00,
2013-02-09 16:09:00,65.8,60.5,30.01,SSE,153,0.0,8.0,83,0.00,,---,0.01,139.00,VWS V14.01,2013-02-09 22:09:00,
2013-02-09 16:10:00,65.8,60.2,30.01,SE,136,4.0,8.0,82,0.00,,---,0.01,142.00,VWS V14.01,2013-02-09 22:10:00,
2013-02-09 16:13:00,65.7,60.4,30.00,South,169,4.0,8.0,83,0.00,,---,0.01,141.00,VWS V14.01,2013-02-09 22:13:00,
2013-02-09 16:14:00,65.6,60.3,30.00,SSE,162,1.0,8.0,83,0.00,,---,0.01,123.00,VWS V14.01,2013-02-09 22:14:00,
2013-02-09 16:15:00,65.6,60.3,30.00,East,80,1.0,8.0,83,0.00,,---,0.01,120.00,VWS V14.01,2013-02-09 22:15:00,
2013-02-09 16:17:00,65.7,60.4,30.00,ENE,76,4.0,8.0,83,0.00,,---,0.01,111.00,VWS V14.01,2013-02-09 22:17:00,
2013-02-09 16:18:00,65.6,60.3,30.00,East,101,1.0,8.0,83,0.00,,---,0.01,104.00,VWS V14.01,2013-02-09 22:18:00,
2013-02-09 16:19:00,65.6,60.3,30.00,East,100,1.0,8.0,83,0.00,,---,0.01,97.00,VWS V14.01,2013-02-09 22:19:00,
2013-02-09 16:22:00,65.5,60.5,30.00,South,175,3.0,8.0,84,0.00,,---,0.01,84.00,VWS V14.01,2013-02-09 22:22:00,
2013-02-09 16:24:00,65.4,60.5,30.00,SE,126,2.0,8.0,84,0.00,,---,0.01,70.00,VWS V14.01,2013-02-09 22:24:00,
2013-02-09 16:25:00,65.3,60.3,30.00,South,180,0.0,8.0,84,0.00,,---,0.01,63.00,VWS V14.01,2013-02-09 22:25:00,
2013-02-09 16:27:00,65.3,60.3,30.01,SSE,156,0.0,8.0,84,0.00,,---,0.01,44.00,VWS V14.01,2013-02-09 22:27:00,
2013-02-09 16:29:00,65.3,60.3,30.01,ESE,123,4.0,8.0,84,0.00,,---,0.01,32.00,VWS V14.01,2013-02-09 22:29:00,
2013-02-09 16:30:00,65.3,60.3,30.01,ESE,123,4.0,8.0,84,0.00,,---,0.01,32.00,VWS V14.01,2013-02-09 22:30:00,
2013-02-09 16:31:00,65.2,60.2,30.01,ESE,117,1.0,5.0,84,0.00,,---,0.01,33.00,VWS V14.01,2013-02-09 22:31:00,
2013-02-09 16:33:00,65.1,60.2,30.01,SE,130,1.0,5.0,84,0.00,,---,0.01,33.00,VWS V14.01,2013-02-09 22:33:00,
2013-02-09 16:35:00,65.1,60.2,30.00,ESE,106,0.0,5.0,84,0.00,,---,0.01,39.00,VWS V14.01,2013-02-09 22:35:00,
2013-02-09 16:37:00,65.1,60.2,30.00,SSE,147,1.0,5.0,84,0.00,,---,0.01,32.00,VWS V14.01,2013-02-09 22:37:00,
2013-02-09 16:38:00,65.0,60.0,30.00,SE,129,1.0,5.0,84,0.00,,---,0.01,28.00,VWS V14.01,2013-02-09 22:38:00,
2013-02-09 16:41:00,65.0,60.4,30.00,SE,138,3.0,6.0,85,0.00,,---,0.01,32.00,VWS V14.01,2013-02-09 22:41:00,
2013-02-09 16:42:00,65.0,60.4,30.00,SE,140,0.0,6.0,85,0.00,,---,0.01,33.00,VWS V14.01,2013-02-09 22:42:00,
2013-02-09 16:43:00,64.9,60.3,30.00,SSE,159,0.0,6.0,85,0.00,,---,0.01,37.00,VWS V14.01,2013-02-09 22:43:00,
2013-02-09 16:44:00,64.9,60.3,30.01,SSE,161,0.0,6.0,85,0.00,,---,0.01,33.00,VWS V14.01,2013-02-09 22:44:00,
2013-02-09 16:47:00,64.9,60.3,30.00,ESE,109,3.0,8.0,85,0.00,,---,0.01,28.00,VWS V14.01,2013-02-09 22:47:00,
2013-02-09 16:48:00,64.9,60.3,30.00,East,96,0.0,8.0,85,0.00,,---,0.01,25.00,VWS V14.01,2013-02-09 22:48:00,
2013-02-09 16:50:00,64.8,60.2,30.00,SE,124,4.0,8.0,85,0.00,,---,0.01,25.00,VWS V14.01,2013-02-09 22:50:00,
2013-02-09 16:53:00,64.8,60.5,30.00,SE,126,2.0,8.0,86,0.00,,---,0.01,23.00,VWS V14.01,2013-02-09 22:53:00,
2013-02-09 16:55:00,64.7,60.4,30.00,SE,126,0.0,8.0,86,0.00,,---,0.01,19.00,VWS V14.01,2013-02-09 22:55:00,
2013-02-09 16:58:00,64.7,60.4,30.00,SE,142,3.0,8.0,86,0.00,,---,0.01,19.00,VWS V14.01,2013-02-09 22:58:00,
2013-02-09 16:59:00,64.7,60.4,30.00,SE,136,4.0,8.0,86,0.00,,---,0.01,16.00,VWS V14.01,2013-02-09 22:59:00,
2013-02-09 17:00:00,64.7,60.4,30.00,SSE,156,5.0,8.0,86,0.00,,---,0.01,14.00,VWS V14.01,2013-02-09 23:00:00,
2013-02-09 17:03:00,64.6,60.3,30.00,SSE,167,1.0,5.0,86,0.00,,---,0.01,12.00,VWS V14.01,2013-02-09 23:03:00,
2013-02-09 17:05:00,64.6,60.3,30.00,SSE,167,0.0,5.0,86,0.00,,---,0.01,18.00,VWS V14.01,2013-02-09 23:05:00,
2013-02-09 17:06:00,64.6,60.3,30.00,East,96,7.0,7.0,86,0.00,,---,0.01,16.00,VWS V14.01,2013-02-09 23:06:00,
2013-02-09 17:08:00,64.6,60.3,30.00,ESE,116,4.0,7.0,86,0.00,,---,0.01,14.00,VWS V14.01,2013-02-09 23:08:00,
2013-02-09 17:11:00,64.5,60.5,30.00,SE,146,4.0,7.0,87,0.00,,---,0.01,14.00,VWS V14.01,2013-02-09 23:11:00,
2013-02-09 17:13:00,64.5,60.5,30.00,ESE,119,0.0,7.0,87,0.00,,---,0.01,12.00,VWS V14.01,2013-02-09 23:13:00,
2013-02-09 17:16:00,64.5,60.5,30.00,SE,125,2.0,7.0,87,0.00,,---,0.01,12.00,VWS V14.01,2013-02-09 23:16:00,
2013-02-09 17:17:00,64.5,60.5,30.00,ESE,117,1.0,7.0,87,0.00,,---,0.01,12.00,VWS V14.01,2013-02-09 23:17:00,
2013-02-09 17:18:00,64.4,60.5,30.00,ESE,119,1.0,7.0,87,0.00,,---,0.01,12.00,VWS V14.01,2013-02-09 23:18:00,
2013-02-09 17:21:00,64.4,60.5,29.99,ESE,111,0.0,7.0,87,0.00,,---,0.01,11.00,VWS V14.01,2013-02-09 23:21:00,
2013-02-09 17:24:00,64.4,60.5,29.99,SE,126,0.0,7.0,87,0.00,,---,0.01,12.00,VWS V14.01,2013-02-09 23:24:00,
2013-02-09 17:26:00,64.4,60.5,29.99,SE,126,0.0,7.0,87,0.00,,---,0.01,12.00,VWS V14.01,2013-02-09 23:26:00,
2013-02-09 17:29:00,64.3,60.3,29.99,SSW,204,6.0,7.0,87,0.00,,---,0.01,7.00,VWS V14.01,2013-02-09 23:29:00,
2013-02-09 17:30:00,64.3,60.3,29.99,SSW,207,5.0,7.0,87,0.00,,---,0.01,9.00,VWS V14.01,2013-02-09 23:30:00,
2013-02-09 17:31:00,64.3,60.7,29.99,SSE,150,0.0,5.0,88,0.00,,---,0.01,7.00,VWS V14.01,2013-02-09 23:31:00,
2013-02-09 17:33:00,64.3,60.7,29.99,SSE,159,2.0,5.0,88,0.00,,---,0.01,9.00,VWS V14.01,2013-02-09 23:33:00,
2013-02-09 17:36:00,64.2,60.6,29.99,ESE,119,2.0,8.0,88,0.00,,---,0.01,7.00,VWS V14.01,2013-02-09 23:36:00,
2013-02-09 17:37:00,64.2,60.6,29.99,SE,144,2.0,8.0,88,0.00,,---,0.01,7.00,VWS V14.01,2013-02-09 23:37:00,
2013-02-09 17:38:00,64.2,60.6,29.99,SE,146,0.0,8.0,88,0.00,,---,0.01,5.00,VWS V14.01,2013-02-09 23:38:00,
2013-02-09 17:42:00,64.1,60.5,29.99,SSE,153,0.0,8.0,88,0.00,,---,0.01,5.00,VWS V14.01,2013-02-09 23:42:00,
2013-02-09 17:43:00,64.1,60.5,29.99,SSE,153,1.0,8.0,88,0.00,,---,0.01,5.00,VWS V14.01,2013-02-09 23:43:00,
2013-02-09 17:48:00,64.1,60.5,29.99,SSE,153,3.0,8.0,88,0.00,,---,0.01,0.00,VWS V14.01,2013-02-09 23:48:00,
2013-02-09 17:52:00,64.0,60.4,29.99,SSE,153,1.0,8.0,88,0.00,,---,0.01,0.00,VWS V14.01,2013-02-09 23:52:00,
2013-02-09 17:54:00,64.0,60.4,29.99,South,184,0.0,8.0,88,0.00,,---,0.01,0.00,VWS V14.01,2013-02-09 23:54:00,
2013-02-09 17:57:00,64.0,60.4,29.99,East,79,3.0,8.0,88,0.00,,---,0.01,0.00,VWS V14.01,2013-02-09 23:57:00,
2013-02-09 17:59:00,64.0,60.4,29.99,East,79,0.0,8.0,88,0.00,,---,0.01,0.00,VWS V14.01,2013-02-09 23:59:00,
2013-02-09 18:00:00,64.0,60.4,29.99,East,79,0.0,8.0,88,0.00,,---,0.01,0.00,VWS V14.01,2013-02-10 00:00:00,
2013-02-09 18:01:00,63.9,60.3,29.99,ESE,107,1.0,5.0,88,0.00,,---,0.01,0.00,VWS V14.01,2013-02-10 00:01:00,
2013-02-09 18:02:00,63.9,60.3,29.99,SSE,161,0.0,6.0,88,0.00,,---,0.01,0.00,VWS V14.01,2013-02-10 00:02:00,
2013-02-09 18:04:00,63.9,60.6,29.99,ESE,119,0.0,6.0,89,0.00,,---,0.01,0.00,VWS V14.01,2013-02-10 00:04:00,
2013-02-09 18:07:00,63.9,60.6,29.99,East,91,3.0,7.0,89,0.00,,---,0.01,0.00,VWS V14.01,2013-02-10 00:07:00,
2013-02-09 18:08:00,63.8,60.5,29.99,East,91,0.0,7.0,89,0.00,,---,0.01,0.00,VWS V14.01,2013-02-10 00:08:00,
2013-02-09 18:11:00,63.8,60.5,29.99,ESE,116,0.0,7.0,89,0.00,,---,0.01,0.00,VWS V14.01,2013-02-10 00:11:00,
2013-02-09 18:13:00,63.8,60.5,29.99,ENE,71,0.0,7.0,89,0.00,,---,0.01,0.00,VWS V14.01,2013-02-10 00:13:00,
2013-02-09 18:14:00,63.8,60.5,29.99,NNE,17,4.0,7.0,89,0.00,,---,0.01,0.00,VWS V14.01,2013-02-10 00:14:00,
2013-02-09 18:16:00,63.8,60.5,29.99,SSE,147,0.0,7.0,89,0.00,,---,0.01,0.00,VWS V14.01,2013-02-10 00:16:00,
2013-02-09 18:18:00,63.8,60.5,29.99,SSE,147,0.0,7.0,89,0.00,,---,0.01,0.00,VWS V14.01,2013-02-10 00:18:00,
2013-02-09 18:19:00,63.7,60.4,29.99,SSE,147,0.0,7.0,89,0.00,,---,0.01,0.00,VWS V14.01,2013-02-10 00:19:00,
2013-02-09 18:21:00,63.7,60.4,29.99,SSE,147,0.0,7.0,89,0.00,,---,0.01,0.00,VWS V14.01,2013-02-10 00:21:00,
2013-02-09 18:24:00,63.7,60.4,29.99,SSE,147,1.0,7.0,89,0.00,,---,0.01,0.00,VWS V14.01,2013-02-10 00:24:00,
2013-02-09 18:26:00,63.7,60.4,29.99,ESE,103,0.0,7.0,89,0.00,,---,0.01,0.00,VWS V14.01,2013-02-10 00:26:00,
2013-02-09 18:30:00,63.7,60.4,29.99,ESE,107,0.0,0.0,89,0.00,,---,0.01,0.00,VWS V14.01,2013-02-10 00:30:00,
2013-02-09 18:31:00,63.6,60.3,29.99,ESE,107,2.0,2.0,89,0.00,,---,0.01,0.00,VWS V14.01,2013-02-10 00:31:00,
2013-02-09 18:32:00,63.6,60.3,29.99,ESE,109,0.0,2.0,89,0.00,,---,0.01,0.00,VWS V14.01,2013-02-10 00:32:00,
2013-02-09 18:35:00,63.6,60.3,29.99,ESE,120,0.0,3.0,89,0.00,,---,0.01,0.00,VWS V14.01,2013-02-10 00:35:00,
2013-02-09 18:37:00,63.6,60.3,30.00,ESE,122,1.0,3.0,89,0.00,,---,0.01,0.00,VWS V14.01,2013-02-10 00:37:00,
2013-02-09 18:38:00,63.6,60.3,30.00,ESE,122,0.0,3.0,89,0.00,,---,0.01,0.00,VWS V14.01,2013-02-10 00:38:00,
2013-02-09 18:40:00,63.6,60.3,29.99,East,93,1.0,3.0,89,0.00,,---,0.01,0.00,VWS V14.01,2013-02-10 00:40:00,
2013-02-09 18:42:00,63.6,60.3,29.99,SSE,152,0.0,3.0,89,0.00,,---,0.01,0.00,VWS V14.01,2013-02-10 00:42:00,
2013-02-09 18:45:00,63.6,60.3,29.99,SSE,152,0.0,3.0,89,0.00,,---,0.01,0.00,VWS V14.01,2013-02-10 00:45:00,
2013-02-09 18:46:00,63.6,60.3,30.00,SSE,152,0.0,3.0,89,0.00,,---,0.01,0.00,VWS V14.01,2013-02-10 00:46:00,
2013-02-09 18:50:00,63.5,60.5,30.00,ESE,103,0.0,3.0,90,0.00,,---,0.01,0.00,VWS V14.01,2013-02-10 00:50:00,
2013-02-09 18:51:00,63.5,60.5,30.00,ESE,117,3.0,3.0,90,0.00,,---,0.01,0.00,VWS V14.01,2013-02-10 00:51:00,
2013-02-09 18:52:00,63.5,60.5,29.99,ESE,118,1.0,3.0,90,0.00,,---,0.01,0.00,VWS V14.01,2013-02-10 00:52:00,
2013-02-09 18:57:00,63.5,60.5,29.99,SE,144,1.0,5.0,90,0.00,,---,0.01,0.00,VWS V14.01,2013-02-10 00:57:00,
2013-02-09 18:59:00,63.5,60.5,29.99,ESE,117,2.0,5.0,90,0.00,,---,0.01,0.00,VWS V14.01,2013-02-10 00:59:00,
2013-02-09 19:00:00,63.5,60.5,29.99,ESE,117,2.0,5.0,90,0.00,,---,0.01,0.00,VWS V14.01,2013-02-10 01:00:00,
2013-02-09 19:02:00,63.5,60.5,29.99,East,90,2.0,5.0,90,0.00,,---,0.01,0.00,VWS V14.01,2013-02-10 01:02:00,
2013-02-09 19:06:00,63.5,60.5,29.99,ESE,123,2.0,5.0,90,0.00,,---,0.01,0.00,VWS V14.01,2013-02-10 01:06:00,
2013-02-09 19:07:00,63.4,60.4,29.99,ESE,123,0.0,5.0,90,0.00,,---,0.01,0.00,VWS V14.01,2013-02-10 01:07:00,
2013-02-09 19:08:00,63.4,60.4,29.99,ESE,123,0.0,5.0,90,0.00,,---,0.01,0.00,VWS V14.01,2013-02-10 01:08:00,
2013-02-09 19:13:00,63.4,60.4,29.99,ESE,115,0.0,5.0,90,0.00,,---,0.01,0.00,VWS V14.01,2013-02-10 01:13:00,
2013-02-09 19:14:00,63.4,60.4,29.99,ESE,116,0.0,5.0,90,0.00,,---,0.01,0.00,VWS V14.01,2013-02-10 01:14:00,
2013-02-09 19:16:00,63.4,60.4,29.99,ESE,118,2.0,5.0,90,0.00,,---,0.01,0.00,VWS V14.01,2013-02-10 01:16:00,
2013-02-09 19:17:00,63.4,60.4,29.99,ESE,107,1.0,5.0,90,0.00,,---,0.01,0.00,VWS V14.01,2013-02-10 01:17:00,
2013-02-09 19:18:00,63.4,60.4,29.99,ESE,107,0.0,5.0,90,0.00,,---,0.01,0.00,VWS V14.01,2013-02-10 01:18:00,
2013-02-09 19:19:00,63.4,60.4,29.99,ESE,107,0.0,5.0,90,0.00,,---,0.01,0.00,VWS V14.01,2013-02-10 01:19:00,
2013-02-09 19:24:00,63.4,60.4,29.99,ESE,110,1.0,5.0,90,0.00,,---,0.01,0.00,VWS V14.01,2013-02-10 01:24:00,
2013-02-09 19:25:00,63.4,60.4,29.99,ESE,110,0.0,5.0,90,0.00,,---,0.01,0.00,VWS V14.01,2013-02-10 01:25:00,
2013-02-09 19:26:00,63.4,60.4,29.99,ESE,110,1.0,5.0,90,0.00,,---,0.01,0.00,VWS V14.01,2013-02-10 01:26:00,
2013-02-09 19:29:00,63.4,60.7,29.98,SE,130,0.0,5.0,91,0.00,,---,0.01,0.00,VWS V14.01,2013-02-10 01:29:00,
2013-02-09 19:30:00,63.4,60.7,29.98,SE,130,0.0,0.0,91,0.00,,---,0.01,0.00,VWS V14.01,2013-02-10 01:30:00,
2013-02-09 19:32:00,63.4,60.7,29.98,South,184,5.0,8.0,91,0.00,,---,0.01,0.00,VWS V14.01,2013-02-10 01:32:00,
2013-02-09 19:35:00,63.4,60.7,29.98,SE,142,1.0,8.0,91,0.00,,---,0.01,0.00,VWS V14.01,2013-02-10 01:35:00,
2013-02-09 20:00:00,63.3,60.6,29.98,SSE,147,0.0,8.0,91,0.00,,---,0.01,0.00,VWS V14.01,2013-02-10 02:00:00,
2013-02-09 20:30:00,63.8,61.7,29.97,SSE,151,2.0,10.0,93,0.00,,---,0.01,0.00,VWS V14.01,2013-02-10 02:30:00,
2013-02-09 20:50:00,63.4,61.0,29.99,East,100,2.0,2.0,92,0.00,,---,0.01,0.00,VWS V14.01,2013-02-10 02:50:00,
2013-02-09 20:51:00,63.5,61.1,29.99,East,100,0.0,2.0,92,0.00,,---,0.01,0.00,VWS V14.01,2013-02-10 02:51:00,
2013-02-09 20:52:00,63.5,61.1,29.98,SE,146,0.0,3.0,92,0.00,,---,0.01,0.00,VWS V14.01,2013-02-10 02:52:00,
2013-02-09 20:56:00,63.5,61.1,29.98,SE,141,0.0,5.0,92,0.00,,---,0.01,0.00,VWS V14.01,2013-02-10 02:56:00,
2013-02-09 20:58:00,63.5,61.1,29.98,SSE,157,3.0,5.0,92,0.00,,---,0.01,0.00,VWS V14.01,2013-02-10 02:58:00,
2013-02-09 21:00:00,63.5,61.1,29.98,South,182,0.0,4.0,92,0.00,,---,0.01,0.00,VWS V14.01,2013-02-10 03:00:00,
2013-02-09 21:01:00,63.5,61.1,29.98,ESE,120,7.0,7.0,92,0.00,,---,0.01,0.00,VWS V14.01,2013-02-10 03:01:00,
2013-02-09 21:03:00,63.6,61.5,29.98,ESE,103,1.0,7.0,93,0.00,,---,0.01,0.00,VWS V14.01,2013-02-10 03:03:00,
2013-02-09 21:06:00,63.6,61.5,29.98,SE,140,2.0,10.0,93,0.00,,---,0.01,0.00,VWS V14.01,2013-02-10 03:06:00,
2013-02-09 21:08:00,63.6,61.5,29.98,SE,136,8.0,10.0,93,0.00,,---,0.01,0.00,VWS V14.01,2013-02-10 03:08:00,
2013-02-09 21:11:00,63.6,61.5,29.98,SE,125,2.0,10.0,93,0.00,,---,0.01,0.00,VWS V14.01,2013-02-10 03:11:00,
2013-02-09 21:12:00,63.7,61.6,29.98,SE,125,2.0,10.0,93,0.00,,---,0.01,0.00,VWS V14.01,2013-02-10 03:12:00,
2013-02-09 21:14:00,63.7,61.6,29.98,SE,141,1.0,10.0,93,0.00,,---,0.01,0.00,VWS V14.01,2013-02-10 03:14:00,
2013-02-09 21:15:00,63.7,61.6,29.98,East,92,1.0,10.0,93,0.00,,---,0.01,0.00,VWS V14.01,2013-02-10 03:15:00,
2013-02-09 21:16:00,63.8,61.7,29.97,SE,134,2.0,10.0,93,0.00,,---,0.01,0.00,VWS V14.01,2013-02-10 03:16:00,
2013-02-09 21:18:00,63.7,61.6,29.97,ESE,116,2.0,10.0,93,0.00,,---,0.01,0.00,VWS V14.01,2013-02-10 03:18:00,
2013-02-09 21:19:00,63.8,61.7,29.98,ESE,119,0.0,10.0,93,0.00,,---,0.01,0.00,VWS V14.01,2013-02-10 03:19:00,
2013-02-09 21:21:00,63.8,61.7,29.98,SSE,154,1.0,10.0,93,0.00,,---,0.01,0.00,VWS V14.01,2013-02-10 03:21:00,
2013-02-09 21:22:00,63.8,61.7,29.97,SE,134,2.0,10.0,93,0.00,,---,0.01,0.00,VWS V14.01,2013-02-10 03:22:00,
2013-02-09 21:25:00,63.8,61.7,29.98,SSE,159,6.0,10.0,93,0.00,,---,0.01,0.00,VWS V14.01,2013-02-10 03:25:00,
2013-02-09 21:29:00,63.8,61.7,29.97,SSE,151,0.0,10.0,93,0.00,,---,0.01,0.00,VWS V14.01,2013-02-10 03:29:00,
2013-02-09 21:30:00,63.8,61.7,29.97,SE,144,4.0,4.0,93,0.00,,---,0.01,0.00,VWS V14.01,2013-02-10 03:30:00,
2013-02-09 21:33:00,63.9,61.8,29.97,SE,143,3.0,10.0,93,0.00,,---,0.01,0.00,VWS V14.01,2013-02-10 03:33:00,
2013-02-09 21:34:00,63.9,61.8,29.97,ENE,57,1.0,10.0,93,0.00,,---,0.01,0.00,VWS V14.01,2013-02-10 03:34:00,
2013-02-09 21:36:00,64.0,61.9,29.97,East,86,1.0,10.0,93,0.00,,---,0.01,0.00,VWS V14.01,2013-02-10 03:36:00,
2013-02-09 21:40:00,64.0,61.9,29.97,SE,136,1.0,11.0,93,0.00,,---,0.01,0.00,VWS V14.01,2013-02-10 03:40:00,
2013-02-09 21:41:00,64.0,61.9,29.97,East,94,5.0,11.0,93,0.00,,---,0.01,0.00,VWS V14.01,2013-02-10 03:41:00,
2013-02-09 21:42:00,64.1,62.0,29.97,SE,136,1.0,11.0,93,0.00,,---,0.01,0.00,VWS V14.01,2013-02-10 03:42:00,
2013-02-09 21:47:00,64.1,62.0,29.97,South,180,7.0,13.0,93,0.00,,---,0.01,0.00,VWS V14.01,2013-02-10 03:47:00,
2013-02-09 21:48:00,64.1,62.0,29.97,SE,134,4.0,13.0,93,0.00,,---,0.01,0.00,VWS V14.01,2013-02-10 03:48:00,
2013-02-09 21:49:00,64.1,62.0,29.97,SE,129,3.0,13.0,93,0.00,,---,0.01,0.00,VWS V14.01,2013-02-10 03:49:00,
2013-02-09 21:52:00,64.2,62.1,29.97,SSE,150,3.0,13.0,93,0.00,,---,0.01,0.00,VWS V14.01,2013-02-10 03:52:00,
2013-02-09 21:53:00,64.2,62.1,29.97,SE,139,1.0,13.0,93,0.00,,---,0.01,0.00,VWS V14.01,2013-02-10 03:53:00,
2013-02-09 21:55:00,64.2,62.1,29.97,ESE,114,2.0,13.0,93,0.00,,---,0.01,0.00,VWS V14.01,2013-02-10 03:55:00,
2013-02-09 21:57:00,64.3,62.2,29.97,SSE,152,2.0,13.0,93,0.00,,---,0.01,0.00,VWS V14.01,2013-02-10 03:57:00,
2013-02-09 21:58:00,64.3,62.2,29.97,SSE,154,6.0,13.0,93,0.00,,---,0.01,0.00,VWS V14.01,2013-02-10 03:58:00,
2013-02-09 22:00:00,64.3,62.2,29.97,SSE,165,3.0,13.0,93,0.00,,---,0.01,0.00,VWS V14.01,2013-02-10 04:00:00,
2013-02-09 22:03:00,64.3,62.2,29.97,SE,134,2.0,8.0,93,0.00,,---,0.01,0.00,VWS V14.01,2013-02-10 04:03:00,
2013-02-09 22:04:00,64.3,62.2,29.97,SE,136,1.0,8.0,93,0.00,,---,0.01,0.00,VWS V14.01,2013-02-10 04:04:00,
2013-02-09 22:09:00,64.4,62.3,29.97,SE,137,3.0,9.0,93,0.00,,---,0.01,0.00,VWS V14.01,2013-02-10 04:09:00,
2013-02-09 22:10:00,64.4,62.3,29.97,SSE,153,2.0,9.0,93,0.00,,---,0.01,0.00,VWS V14.01,2013-02-10 04:10:00,
2013-02-09 22:14:00,64.5,62.4,29.97,East,83,5.0,9.0,93,0.00,,---,0.01,0.00,VWS V14.01,2013-02-10 04:14:00,
2013-02-09 22:15:00,64.5,62.4,29.97,SSE,161,5.0,9.0,93,0.00,,---,0.01,0.00,VWS V14.01,2013-02-10 04:15:00,
2013-02-09 22:20:00,64.6,62.5,29.97,ESE,122,1.0,9.0,93,0.00,,---,0.01,0.00,VWS V14.01,2013-02-10 04:20:00,
2013-02-09 22:21:00,64.6,62.5,29.97,SSE,157,2.0,9.0,93,0.00,,---,0.01,0.00,VWS V14.01,2013-02-10 04:21:00,
2013-02-09 22:23:00,64.6,62.5,29.97,ESE,105,4.0,9.0,93,0.00,,---,0.01,0.00,VWS V14.01,2013-02-10 04:23:00,
2013-02-09 22:26:00,64.6,62.5,29.97,South,180,4.0,9.0,93,0.00,,---,0.01,0.00,VWS V14.01,2013-02-10 04:26:00,
2013-02-09 22:28:00,64.7,62.6,29.97,SE,138,1.0,9.0,93,0.00,,---,0.01,0.00,VWS V14.01,2013-02-10 04:28:00,
2013-02-09 22:29:00,64.7,62.6,29.97,SE,135,0.0,9.0,93,0.00,,---,0.01,0.00,VWS V14.01,2013-02-10 04:29:00,
2013-02-09 22:30:00,64.7,62.6,29.96,SE,136,1.0,9.0,93,0.00,,---,0.01,0.00,VWS V14.01,2013-02-10 04:30:00,
2013-02-09 22:31:00,64.7,62.6,29.97,SE,140,4.0,6.0,93,0.00,,---,0.01,0.00,VWS V14.01,2013-02-10 04:31:00,
2013-02-09 22:33:00,64.7,62.6,29.96,SE,131,2.0,6.0,93,0.00,,---,0.01,0.00,VWS V14.01,2013-02-10 04:33:00,
2013-02-09 22:36:00,64.7,62.6,29.96,SSE,151,0.0,6.0,93,0.00,,---,0.01,0.00,VWS V14.01,2013-02-10 04:36:00,
2013-02-09 22:37:00,64.7,62.6,29.96,SSE,151,0.0,6.0,93,0.00,,---,0.01,0.00,VWS V14.01,2013-02-10 04:37:00,
2013-02-09 22:39:00,64.7,62.6,29.96,SE,140,0.0,6.0,93,0.00,,---,0.01,0.00,VWS V14.01,2013-02-10 04:39:00,
2013-02-09 22:42:00,64.7,62.6,29.96,ESE,102,1.0,6.0,93,0.00,,---,0.01,0.00,VWS V14.01,2013-02-10 04:42:00,
2013-02-09 22:44:00,64.8,62.7,29.96,SSE,166,2.0,6.0,93,0.00,,---,0.01,0.00,VWS V14.01,2013-02-10 04:44:00,
2013-02-09 22:45:00,64.8,62.7,29.96,SSE,159,1.0,10.0,93,0.00,,---,0.01,0.00,VWS V14.01,2013-02-10 04:45:00,
2013-02-09 22:47:00,64.8,62.7,29.96,SSE,159,2.0,10.0,93,0.00,,---,0.01,0.00,VWS V14.01,2013-02-10 04:47:00,
2013-02-09 22:50:00,64.8,62.7,29.96,SE,124,4.0,10.0,93,0.00,,---,0.01,0.00,VWS V14.01,2013-02-10 04:50:00,
2013-02-09 22:52:00,64.8,62.7,29.96,SE,128,0.0,10.0,93,0.00,,---,0.01,0.00,VWS V14.01,2013-02-10 04:52:00,
2013-02-09 22:54:00,64.8,62.7,29.96,ESE,115,2.0,10.0,93,0.00,,---,0.01,0.00,VWS V14.01,2013-02-10 04:54:00,
2013-02-09 22:55:00,64.8,62.7,29.96,South,187,3.0,10.0,93,0.00,,---,0.01,0.00,VWS V14.01,2013-02-10 04:55:00,
2013-02-09 22:58:00,64.8,62.7,29.96,ESE,107,4.0,10.0,93,0.00,,---,0.01,0.00,VWS V14.01,2013-02-10 04:58:00,
2013-02-09 23:00:00,64.9,62.8,29.95,SE,131,1.0,2.0,93,0.00,,---,0.01,0.00,VWS V14.01,2013-02-10 05:00:00,
2013-02-09 23:01:00,64.9,62.8,29.96,SSE,150,1.0,3.0,93,0.00,,---,0.01,0.00,VWS V14.01,2013-02-10 05:01:00,
2013-02-09 23:03:00,64.9,62.8,29.95,East,98,8.0,8.0,93,0.00,,---,0.01,0.00,VWS V14.01,2013-02-10 05:03:00,
2013-02-09 23:06:00,64.9,62.8,29.95,South,170,0.0,8.0,93,0.00,,---,0.01,0.00,VWS V14.01,2013-02-10 05:06:00,
2013-02-09 23:09:00,64.9,62.8,29.95,SSE,149,4.0,8.0,93,0.00,,---,0.01,0.00,VWS V14.01,2013-02-10 05:09:00,
2013-02-09 23:11:00,64.9,62.8,29.95,East,84,3.0,8.0,93,0.00,,---,0.01,0.00,VWS V14.01,2013-02-10 05:11:00,
2013-02-09 23:14:00,65.0,62.9,29.95,SSE,165,4.0,8.0,93,0.00,,---,0.01,0.00,VWS V14.01,2013-02-10 05:14:00,
2013-02-09 23:15:00,65.0,62.9,29.95,SE,134,2.0,8.0,93,0.00,,---,0.01,0.00,VWS V14.01,2013-02-10 05:15:00,
2013-02-09 23:19:00,65.0,62.9,29.95,ESE,117,3.0,8.0,93,0.00,,---,0.01,0.00,VWS V14.01,2013-02-10 05:19:00,
2013-02-09 23:20:00,65.0,62.9,29.95,SSE,155,0.0,8.0,93,0.00,,---,0.01,0.00,VWS V14.01,2013-02-10 05:20:00,
2013-02-09 23:24:00,65.0,62.9,29.95,South,182,1.0,8.0,93,0.00,,---,0.01,0.00,VWS V14.01,2013-02-10 05:24:00,
2013-02-09 23:25:00,65.0,62.9,29.95,ESE,105,1.0,8.0,93,0.00,,---,0.01,0.00,VWS V14.01,2013-02-10 05:25:00,
2013-02-09 23:30:00,65.0,62.9,29.94,SE,137,0.0,1.0,93,0.00,,---,0.01,0.00,VWS V14.01,2013-02-10 05:30:00,
2013-02-09 23:32:00,65.0,62.9,29.94,ESE,119,4.0,7.0,93,0.00,,---,0.01,0.00,VWS V14.01,2013-02-10 05:32:00,
2013-02-09 23:35:00,65.0,62.9,29.94,ESE,123,0.0,7.0,93,0.00,,---,0.01,0.00,VWS V14.01,2013-02-10 05:35:00,
2013-02-09 23:36:00,65.0,62.9,29.94,ESE,123,1.0,7.0,93,0.00,,---,0.01,0.00,VWS V14.01,2013-02-10 05:36:00,
2013-02-09 23:37:00,65.0,62.9,29.94,SSE,147,3.0,7.0,93,0.00,,---,0.01,0.00,VWS V14.01,2013-02-10 05:37:00,
2013-02-09 23:39:00,65.0,62.9,29.94,East,85,2.0,7.0,93,0.00,,---,0.01,0.00,VWS V14.01,2013-02-10 05:39:00,
2013-02-09 23:41:00,65.1,63.0,29.94,South,171,3.0,7.0,93,0.00,,---,0.01,0.00,VWS V14.01,2013-02-10 05:41:00,
2013-02-09 23:42:00,65.1,63.0,29.94,SE,132,0.0,7.0,93,0.00,,---,0.01,0.00,VWS V14.01,2013-02-10 05:42:00,
2013-02-09 23:43:00,65.1,63.0,29.94,SE,132,0.0,7.0,93,0.00,,---,0.01,0.00,VWS V14.01,2013-02-10 05:43:00,
2013-02-09 23:44:00,65.1,63.0,29.94,South,181,2.0,7.0,93,0.00,,---,0.01,0.00,VWS V14.01,2013-02-10 05:44:00,
2013-02-09 23:46:00,65.1,63.0,29.94,SE,130,0.0,7.0,93,0.00,,---,0.01,0.00,VWS V14.01,2013-02-10 05:46:00,
2013-02-09 23:49:00,65.1,63.0,29.93,SSE,165,5.0,7.0,93,0.00,,---,0.01,0.00,VWS V14.01,2013-02-10 05:49:00,
2013-02-09 23:50:00,65.1,63.0,29.93,East,83,2.0,7.0,93,0.00,,---,0.01,0.00,VWS V14.01,2013-02-10 05:50:00,
2013-02-09 23:52:00,65.2,63.1,29.93,East,100,1.0,7.0,93,0.00,,---,0.01,0.00,VWS V14.01,2013-02-10 05:52:00,
2013-02-09 23:54:00,65.2,63.1,29.93,SSE,160,0.0,7.0,93,0.00,,---,0.01,0.00,VWS V14.01,2013-02-10 05:54:00,
2013-02-09 23:55:00,65.2,63.1,29.93,SSE,160,0.0,7.0,93,0.00,,---,0.01,0.00,VWS V14.01,2013-02-10 05:55:00,
2013-02-09 23:57:00,65.2,63.1,29.93,ESE,106,2.0,7.0,93,0.00,,---,0.01,0.00,VWS V14.01,2013-02-10 05:57:00,
2013-02-09 23:58:00,65.2,63.1,29.93,SSE,158,1.0,7.0,93,0.00,,---,0.01,0.00,VWS V14.01,2013-02-10 05:58:00,